Time,TemperatureF,DewpointF,PressureIn,WindDirection,WindDirectionDegrees,WindSpeedMPH,WindSpeedGustMPH,Humidity,HourlyPrecipIn,Conditions,Clouds,dailyrainin,SolarRadiationWatts/m^2,SoftwareType,DateUTC
2013-04-18 00:00:00,79.0,73.4,30.02,ENE,69,4.0,13.0,83,0.00,,FEW,0.00,0.00,VWS V14.01,2013-04-18 04:00:00,
2013-04-18 00:01:00,79.0,73.4,30.02,ENE,73,4.0,13.0,83,0.00,,FEW,0.00,0.00,VWS V14.01,2013-04-18 04:01:00,
2013-04-18 00:06:00,78.9,73.3,30.01,ESE,112,5.0,9.0,83,0.00,,FEW,0.00,0.00,VWS V14.01,2013-04-18 04:06:00,
2013-04-18 00:07:00,78.9,73.3,30.01,ENE,71,3.0,9.0,83,0.00,,FEW,0.00,0.00,VWS V14.01,2013-04-18 04:07:00,
2013-04-18 00:11:00,78.8,73.2,30.01,East,90,3.0,9.0,83,0.00,,FEW,0.00,0.00,VWS V14.01,2013-04-18 04:11:00,
2013-04-18 00:12:00,78.8,73.2,30.01,ESE,109,3.0,9.0,83,0.00,,FEW,0.00,0.00,VWS V14.01,2013-04-18 04:12:00,
2013-04-18 00:16:00,78.9,73.3,30.01,NE,52,2.0,5.0,83,0.00,,FEW,0.00,0.00,VWS V14.01,2013-04-18 04:16:00,
2013-04-18 00:17:00,78.9,73.3,30.01,NE,52,2.0,5.0,83,0.00,,FEW,0.00,0.00,VWS V14.01,2013-04-18 04:17:00,
2013-04-18 00:22:00,78.8,73.2,30.01,ESE,114,3.0,10.0,83,0.00,,FEW,0.00,0.00,VWS V14.01,2013-04-18 04:22:00,
2013-04-18 00:27:00,78.8,73.2,30.01,ENE,67,3.0,6.0,83,0.00,,FEW,0.00,0.00,VWS V14.01,2013-04-18 04:27:00,
2013-04-18 00:32:00,78.7,73.1,30.01,ENE,73,3.0,7.0,83,0.00,,FEW,0.00,0.00,VWS V14.01,2013-04-18 04:32:00,
2013-04-18 00:33:00,78.7,73.1,30.01,ENE,69,2.0,7.0,83,0.00,,FEW,0.00,0.00,VWS V14.01,2013-04-18 04:33:00,
2013-04-18 00:37:00,78.8,73.2,30.01,ENE,61,3.0,7.0,83,0.00,,FEW,0.00,0.00,VWS V14.01,2013-04-18 04:37:00,
2013-04-18 00:38:00,78.8,73.2,30.01,NE,55,4.0,8.0,83,0.00,,FEW,0.00,0.00,VWS V14.01,2013-04-18 04:38:00,
2013-04-18 00:42:00,78.9,73.3,30.01,ENE,65,4.0,8.0,83,0.00,,FEW,0.00,0.00,VWS V14.01,2013-04-18 04:42:00,
2013-04-18 00:43:00,78.9,73.3,30.01,ENE,60,3.0,5.0,83,0.00,,FEW,0.00,0.00,VWS V14.01,2013-04-18 04:43:00,
2013-04-18 00:47:00,78.8,73.2,30.00,NE,46,3.0,10.0,83,0.00,,FEW,0.00,0.00,VWS V14.01,2013-04-18 04:47:00,
2013-04-18 00:48:00,78.8,73.2,30.00,NE,46,1.0,10.0,83,0.00,,FEW,0.00,0.00,VWS V14.01,2013-04-18 04:48:00,
2013-04-18 00:52:00,78.8,73.2,30.00,ENE,77,2.0,6.0,83,0.00,,FEW,0.00,0.00,VWS V14.01,2013-04-18 04:52:00,
2013-04-18 00:53:00,78.8,73.6,30.00,East,84,2.0,6.0,84,0.00,,FEW,0.00,0.00,VWS V14.01,2013-04-18 04:53:00,
2013-04-18 00:57:00,78.8,73.6,30.00,East,96,7.0,8.0,84,0.00,,FEW,0.00,0.00,VWS V14.01,2013-04-18 04:57:00,
2013-04-18 00:58:00,78.8,73.6,30.00,ENE,75,7.0,8.0,84,0.00,,FEW,0.00,0.00,VWS V14.01,2013-04-18 04:58:00,
2013-04-18 01:03:00,78.8,73.6,29.99,ESE,107,4.0,8.0,84,0.00,,FEW,0.00,0.00,VWS V14.01,2013-04-18 05:03:00,
2013-04-18 01:04:00,78.8,73.6,29.99,ESE,111,9.0,9.0,84,0.00,,FEW,0.00,0.00,VWS V14.01,2013-04-18 05:04:00,
2013-04-18 01:08:00,78.7,73.5,29.99,ENE,58,3.0,9.0,84,0.00,,FEW,0.00,0.00,VWS V14.01,2013-04-18 05:08:00,
2013-04-18 01:09:00,78.8,73.6,29.99,ENE,75,3.0,9.0,84,0.00,,FEW,0.00,0.00,VWS V14.01,2013-04-18 05:09:00,
2013-04-18 01:13:00,78.8,73.6,29.99,NE,36,2.0,3.0,84,0.00,,FEW,0.00,0.00,VWS V14.01,2013-04-18 05:13:00,
2013-04-18 01:14:00,78.8,73.6,29.99,ENE,65,1.0,3.0,84,0.00,,FEW,0.00,0.00,VWS V14.01,2013-04-18 05:14:00,
2013-04-18 01:18:00,78.7,73.5,29.99,East,84,1.0,7.0,84,0.00,,FEW,0.00,0.00,VWS V14.01,2013-04-18 05:18:00,
2013-04-18 01:19:00,78.7,73.5,29.99,East,84,3.0,7.0,84,0.00,,FEW,0.00,0.00,VWS V14.01,2013-04-18 05:19:00,
2013-04-18 01:23:00,78.7,73.5,29.99,East,80,5.0,5.0,84,0.00,,FEW,0.00,0.00,VWS V14.01,2013-04-18 05:23:00,
2013-04-18 01:24:00,78.7,73.5,29.99,East,84,7.0,7.0,84,0.00,,FEW,0.00,0.00,VWS V14.01,2013-04-18 05:24:00,
2013-04-18 01:28:00,78.7,73.5,29.99,ENE,71,2.0,9.0,84,0.00,,FEW,0.00,0.00,VWS V14.01,2013-04-18 05:28:00,
2013-04-18 01:29:00,78.6,73.4,29.99,ESE,119,1.0,9.0,84,0.00,,FEW,0.00,0.00,VWS V14.01,2013-04-18 05:29:00,
2013-04-18 01:33:00,78.5,72.9,29.98,ENE,64,3.0,5.0,83,0.00,,FEW,0.00,0.00,VWS V14.01,2013-04-18 05:33:00,
2013-04-18 01:34:00,78.6,73.0,29.98,East,89,2.0,5.0,83,0.00,,FEW,0.00,0.00,VWS V14.01,2013-04-18 05:34:00,
2013-04-18 01:39:00,78.7,73.1,29.98,ENE,62,3.0,7.0,83,0.00,,FEW,0.00,0.00,VWS V14.01,2013-04-18 05:39:00,
2013-04-18 01:40:00,78.7,73.1,29.98,North,355,2.0,7.0,83,0.00,,FEW,0.00,0.00,VWS V14.01,2013-04-18 05:40:00,
2013-04-18 01:44:00,78.7,73.1,29.98,East,93,6.0,7.0,83,0.00,,FEW,0.00,0.00,VWS V14.01,2013-04-18 05:44:00,
2013-04-18 01:45:00,78.6,73.0,29.98,ESE,111,4.0,7.0,83,0.00,,FEW,0.00,0.00,VWS V14.01,2013-04-18 05:45:00,
2013-04-18 01:49:00,78.6,72.7,29.98,ENE,61,4.0,8.0,82,0.00,,FEW,0.00,0.00,VWS V14.01,2013-04-18 05:49:00,
2013-04-18 01:50:00,78.6,72.7,29.98,NE,55,3.0,8.0,82,0.00,,FEW,0.00,0.00,VWS V14.01,2013-04-18 05:50:00,
2013-04-18 01:54:00,78.7,72.8,29.98,East,90,5.0,8.0,82,0.00,,FEW,0.00,0.00,VWS V14.01,2013-04-18 05:54:00,
2013-04-18 01:55:00,78.7,72.8,29.98,ENE,59,7.0,8.0,82,0.00,,FEW,0.00,0.00,VWS V14.01,2013-04-18 05:55:00,
2013-04-18 01:59:00,78.7,72.4,29.98,ENE,65,9.0,10.0,81,0.00,,FEW,0.00,0.00,VWS V14.01,2013-04-18 05:59:00,
2013-04-18 02:00:00,78.7,72.4,29.98,SE,141,4.0,10.0,81,0.00,,FEW,0.00,0.00,VWS V14.01,2013-04-18 06:00:00,
2013-04-18 02:04:00,78.9,72.9,29.97,East,92,6.0,9.0,82,0.00,,FEW,0.00,0.00,VWS V14.01,2013-04-18 06:04:00,
2013-04-18 02:05:00,78.9,72.9,29.97,ENE,66,5.0,9.0,82,0.00,,FEW,0.00,0.00,VWS V14.01,2013-04-18 06:05:00,
2013-04-18 02:09:00,78.9,73.3,29.97,East,80,3.0,9.0,83,0.00,,FEW,0.00,0.00,VWS V14.01,2013-04-18 06:09:00,
2013-04-18 02:10:00,78.9,73.3,29.97,ENE,69,2.0,9.0,83,0.00,,FEW,0.00,0.00,VWS V14.01,2013-04-18 06:10:00,
2013-04-18 02:11:00,78.8,73.2,29.97,ENE,57,9.0,9.0,83,0.00,,FEW,0.00,0.00,VWS V14.01,2013-04-18 06:11:00,
2013-04-18 02:14:00,78.6,73.4,29.97,ENE,62,5.0,9.0,84,0.00,,FEW,0.00,0.00,VWS V14.01,2013-04-18 06:14:00,
2013-04-18 02:15:00,78.6,73.4,29.97,NE,56,4.0,9.0,84,0.00,,FEW,0.00,0.00,VWS V14.01,2013-04-18 06:15:00,
2013-04-18 02:16:00,78.5,73.3,29.97,NNE,31,5.0,9.0,84,0.00,,FEW,0.00,0.00,VWS V14.01,2013-04-18 06:16:00,
2013-04-18 02:19:00,78.3,73.1,29.97,East,94,5.0,10.0,84,0.00,,FEW,0.00,0.00,VWS V14.01,2013-04-18 06:19:00,
2013-04-18 02:20:00,78.2,73.0,29.97,ESE,113,2.0,10.0,84,0.00,,FEW,0.00,0.00,VWS V14.01,2013-04-18 06:20:00,
2013-04-18 02:21:00,78.2,73.0,29.97,NE,34,5.0,10.0,84,0.00,,FEW,0.00,0.00,VWS V14.01,2013-04-18 06:21:00,
2013-04-18 02:24:00,78.1,73.2,29.97,ENE,78,2.0,10.0,85,0.00,,FEW,0.00,0.00,VWS V14.01,2013-04-18 06:24:00,
2013-04-18 02:25:00,78.1,73.2,29.97,NW,322,3.0,10.0,85,0.00,,FEW,0.00,0.00,VWS V14.01,2013-04-18 06:25:00,
2013-04-18 02:26:00,78.0,73.1,29.97,ENE,78,8.0,11.0,85,0.00,,FEW,0.00,0.00,VWS V14.01,2013-04-18 06:26:00,
2013-04-18 02:30:00,77.9,73.4,29.97,East,93,8.0,11.0,86,0.00,,FEW,0.00,0.00,VWS V14.01,2013-04-18 06:30:00,
2013-04-18 02:31:00,77.9,73.4,29.97,ENE,71,5.0,11.0,86,0.00,,FEW,0.00,0.00,VWS V14.01,2013-04-18 06:31:00,
2013-04-18 02:35:00,77.9,73.4,29.96,ESE,115,3.0,6.0,86,0.00,,FEW,0.00,0.00,VWS V14.01,2013-04-18 06:35:00,
2013-04-18 02:36:00,77.8,73.3,29.96,ENE,73,3.0,14.0,86,0.00,,FEW,0.00,0.00,VWS V14.01,2013-04-18 06:36:00,
2013-04-18 02:40:00,77.8,73.6,29.96,ESE,115,7.0,14.0,87,0.00,,FEW,0.00,0.00,VWS V14.01,2013-04-18 06:40:00,
2013-04-18 02:41:00,77.8,73.6,29.96,ENE,74,8.0,14.0,87,0.00,,FEW,0.00,0.00,VWS V14.01,2013-04-18 06:41:00,
2013-04-18 02:45:00,77.8,73.6,29.96,ENE,72,3.0,6.0,87,0.00,,FEW,0.00,0.00,VWS V14.01,2013-04-18 06:45:00,
2013-04-18 02:46:00,77.8,73.6,29.96,NE,49,3.0,6.0,87,0.00,,FEW,0.00,0.00,VWS V14.01,2013-04-18 06:46:00,
2013-04-18 02:47:00,77.8,73.6,29.96,SE,137,3.0,6.0,87,0.00,,FEW,0.00,0.00,VWS V14.01,2013-04-18 06:47:00,
2013-04-18 02:50:00,77.8,73.6,29.96,NE,39,2.0,7.0,87,0.00,,FEW,0.00,0.00,VWS V14.01,2013-04-18 06:50:00,
2013-04-18 02:51:00,77.8,73.6,29.96,ENE,78,10.0,10.0,87,0.00,,FEW,0.00,0.00,VWS V14.01,2013-04-18 06:51:00,
2013-04-18 02:52:00,77.8,73.6,29.96,ENE,61,2.0,10.0,87,0.00,,FEW,0.00,0.00,VWS V14.01,2013-04-18 06:52:00,
2013-04-18 02:55:00,77.8,73.6,29.96,ESE,108,2.0,7.0,87,0.00,,FEW,0.00,0.00,VWS V14.01,2013-04-18 06:55:00,
2013-04-18 02:56:00,77.8,73.6,29.96,East,84,2.0,7.0,87,0.00,,FEW,0.00,0.00,VWS V14.01,2013-04-18 06:56:00,
2013-04-18 02:57:00,77.8,73.6,29.96,ENE,76,7.0,7.0,87,0.00,,FEW,0.00,0.00,VWS V14.01,2013-04-18 06:57:00,
2013-04-18 03:00:00,77.8,73.3,29.96,NE,37,3.0,8.0,86,0.00,,FEW,0.00,0.00,VWS V14.01,2013-04-18 07:00:00,
2013-04-18 03:01:00,77.8,73.3,29.96,ENE,65,2.0,8.0,86,0.00,,FEW,0.00,0.00,VWS V14.01,2013-04-18 07:01:00,
2013-04-18 03:02:00,77.8,73.3,29.96,East,79,6.0,8.0,86,0.00,,FEW,0.00,0.00,VWS V14.01,2013-04-18 07:02:00,
2013-04-18 03:05:00,78.0,73.5,29.96,East,83,5.0,10.0,86,0.00,,FEW,0.00,0.00,VWS V14.01,2013-04-18 07:05:00,
2013-04-18 03:06:00,78.1,73.6,29.96,East,82,8.0,10.0,86,0.00,,FEW,0.00,0.00,VWS V14.01,2013-04-18 07:06:00,
2013-04-18 03:07:00,78.2,73.7,29.96,NNE,32,10.0,10.0,86,0.00,,FEW,0.00,0.00,VWS V14.01,2013-04-18 07:07:00,
2013-04-18 03:11:00,78.3,73.8,29.96,ENE,65,3.0,10.0,86,0.00,,FEW,0.00,0.00,VWS V14.01,2013-04-18 07:11:00,
2013-04-18 03:12:00,78.2,74.0,29.96,East,82,3.0,10.0,87,0.00,,FEW,0.00,0.00,VWS V14.01,2013-04-18 07:12:00,
2013-04-18 03:16:00,78.0,73.1,29.96,ENE,77,3.0,10.0,85,0.00,,FEW,0.00,0.00,VWS V14.01,2013-04-18 07:16:00,
2013-04-18 03:17:00,78.0,73.5,29.96,ESE,123,3.0,10.0,86,0.00,,FEW,0.00,0.00,VWS V14.01,2013-04-18 07:17:00,
2013-04-18 03:18:00,78.0,73.5,29.96,NNE,30,3.0,10.0,86,0.00,,FEW,0.00,0.00,VWS V14.01,2013-04-18 07:18:00,
2013-04-18 03:21:00,78.1,73.6,29.96,ENE,67,5.0,10.0,86,0.00,,FEW,0.00,0.00,VWS V14.01,2013-04-18 07:21:00,
2013-04-18 03:22:00,78.1,73.6,29.96,ENE,67,4.0,10.0,86,0.00,,FEW,0.00,0.00,VWS V14.01,2013-04-18 07:22:00,
2013-04-18 03:23:00,78.0,73.5,29.96,NE,44,4.0,7.0,86,0.00,,FEW,0.00,0.00,VWS V14.01,2013-04-18 07:23:00,
2013-04-18 03:26:00,78.1,73.9,29.96,SE,139,1.0,9.0,87,0.00,,FEW,0.00,0.00,VWS V14.01,2013-04-18 07:26:00,
2013-04-18 03:27:00,78.2,74.0,29.96,East,96,3.0,9.0,87,0.00,,FEW,0.00,0.00,VWS V14.01,2013-04-18 07:27:00,
2013-04-18 03:28:00,78.3,74.1,29.96,NE,55,3.0,9.0,87,0.00,,FEW,0.00,0.00,VWS V14.01,2013-04-18 07:28:00,
2013-04-18 03:31:00,78.4,74.2,29.96,ESE,111,3.0,9.0,87,0.00,,FEW,0.00,0.00,VWS V14.01,2013-04-18 07:31:00,
2013-04-18 03:32:00,78.5,74.7,29.96,SE,139,7.0,9.0,88,0.00,,FEW,0.00,0.00,VWS V14.01,2013-04-18 07:32:00,
2013-04-18 03:33:00,78.4,74.2,29.96,SSE,157,9.0,9.0,87,0.01,,FEW,0.01,0.00,VWS V14.01,2013-04-18 07:33:00,
2013-04-18 03:36:00,78.1,74.3,29.96,ESE,113,3.0,12.0,88,0.03,,FEW,0.03,0.00,VWS V14.01,2013-04-18 07:36:00,
2013-04-18 03:37:00,78.0,74.2,29.96,ESE,116,2.0,12.0,88,0.03,,FEW,0.03,0.00,VWS V14.01,2013-04-18 07:37:00,
2013-04-18 03:38:00,78.0,74.2,29.96,ESE,119,11.0,12.0,88,0.03,,FEW,0.03,0.00,VWS V14.01,2013-04-18 07:38:00,
2013-04-18 03:41:00,77.4,73.6,29.96,SE,138,9.0,12.0,88,0.04,,FEW,0.04,0.00,VWS V14.01,2013-04-18 07:41:00,
2013-04-18 03:42:00,77.3,73.8,29.96,ESE,115,3.0,12.0,89,0.04,,FEW,0.04,0.00,VWS V14.01,2013-04-18 07:42:00,
2013-04-18 03:43:00,77.3,73.8,29.96,SE,127,4.0,4.0,89,0.04,,FEW,0.04,0.00,VWS V14.01,2013-04-18 07:43:00,
2013-04-18 03:46:00,76.7,73.2,29.96,ESE,119,3.0,10.0,89,0.07,,FEW,0.07,0.00,VWS V14.01,2013-04-18 07:46:00,
2013-04-18 03:47:00,76.5,73.0,29.96,East,84,5.0,10.0,89,0.07,,FEW,0.07,0.00,VWS V14.01,2013-04-18 07:47:00,
2013-04-18 03:48:00,76.4,72.9,29.96,ESE,108,3.0,10.0,89,0.07,,FEW,0.07,0.00,VWS V14.01,2013-04-18 07:48:00,
2013-04-18 03:51:00,76.1,73.0,29.96,ENE,71,3.0,10.0,90,0.07,,FEW,0.07,0.00,VWS V14.01,2013-04-18 07:51:00,
2013-04-18 03:52:00,76.1,73.0,29.96,East,88,1.0,10.0,90,0.07,,FEW,0.07,0.00,VWS V14.01,2013-04-18 07:52:00,
2013-04-18 03:53:00,76.1,73.0,29.96,ESE,117,2.0,2.0,90,0.07,,FEW,0.07,0.00,VWS V14.01,2013-04-18 07:53:00,
2013-04-18 03:57:00,76.1,73.3,29.96,East,83,8.0,8.0,91,0.07,,FEW,0.07,0.00,VWS V14.01,2013-04-18 07:57:00,
2013-04-18 03:58:00,76.2,73.4,29.96,ENE,63,5.0,8.0,91,0.07,,FEW,0.07,0.00,VWS V14.01,2013-04-18 07:58:00,
2013-04-18 03:59:00,76.2,73.4,29.96,East,86,5.0,8.0,91,0.07,,FEW,0.07,0.00,VWS V14.01,2013-04-18 07:59:00,
2013-04-18 04:02:00,76.1,73.3,29.96,ENE,69,5.0,8.0,91,0.08,,FEW,0.08,0.00,VWS V14.01,2013-04-18 08:02:00,
2013-04-18 04:03:00,76.1,73.3,29.96,NE,55,5.0,7.0,91,0.08,,FEW,0.08,0.00,VWS V14.01,2013-04-18 08:03:00,
2013-04-18 04:04:00,76.1,73.3,29.96,ENE,69,3.0,8.0,91,0.08,,FEW,0.08,0.00,VWS V14.01,2013-04-18 08:04:00,
2013-04-18 04:07:00,75.9,73.1,29.96,East,86,3.0,8.0,91,0.08,,FEW,0.08,0.00,VWS V14.01,2013-04-18 08:07:00,
2013-04-18 04:08:00,75.9,73.1,29.96,East,92,6.0,8.0,91,0.08,,FEW,0.08,0.00,VWS V14.01,2013-04-18 08:08:00,
2013-04-18 04:09:00,75.9,73.1,29.96,NE,54,10.0,10.0,91,0.08,,FEW,0.08,0.00,VWS V14.01,2013-04-18 08:09:00,
2013-04-18 04:12:00,75.9,73.4,29.96,ENE,63,5.0,5.0,92,0.08,,FEW,0.08,0.00,VWS V14.01,2013-04-18 08:12:00,
2013-04-18 04:13:00,76.0,73.5,29.96,SSE,164,7.0,7.0,92,0.08,,FEW,0.08,0.00,VWS V14.01,2013-04-18 08:13:00,
2013-04-18 04:14:00,76.0,73.5,29.96,ENE,63,7.0,7.0,92,0.08,,FEW,0.08,0.00,VWS V14.01,2013-04-18 08:14:00,
2013-04-18 04:17:00,76.0,73.5,29.96,ESE,119,2.0,16.0,92,0.08,,FEW,0.08,0.00,VWS V14.01,2013-04-18 08:17:00,
2013-04-18 04:18:00,76.0,73.5,29.96,East,86,3.0,16.0,92,0.08,,FEW,0.08,0.00,VWS V14.01,2013-04-18 08:18:00,
2013-04-18 04:19:00,76.0,73.5,29.96,ENE,78,4.0,16.0,92,0.08,,FEW,0.08,0.00,VWS V14.01,2013-04-18 08:19:00,
2013-04-18 04:20:00,76.0,73.5,29.96,ENE,75,7.0,16.0,92,0.08,,FEW,0.08,0.00,VWS V14.01,2013-04-18 08:20:00,
2013-04-18 04:22:00,76.0,73.5,29.96,ENE,67,4.0,4.0,92,0.08,,FEW,0.08,0.00,VWS V14.01,2013-04-18 08:22:00,
2013-04-18 04:23:00,76.0,73.5,29.96,ENE,76,5.0,7.0,92,0.08,,FEW,0.08,0.00,VWS V14.01,2013-04-18 08:23:00,
2013-04-18 04:24:00,76.0,73.5,29.96,ESE,109,4.0,8.0,92,0.08,,FEW,0.08,0.00,VWS V14.01,2013-04-18 08:24:00,
2013-04-18 04:25:00,76.0,73.5,29.96,South,170,3.0,8.0,92,0.08,,FEW,0.08,0.00,VWS V14.01,2013-04-18 08:25:00,
2013-04-18 04:28:00,75.8,73.3,29.96,ENE,67,7.0,8.0,92,0.08,,FEW,0.08,0.00,VWS V14.01,2013-04-18 08:28:00,
2013-04-18 04:29:00,75.7,72.9,29.96,East,88,5.0,9.0,91,0.08,,FEW,0.08,0.00,VWS V14.01,2013-04-18 08:29:00,
2013-04-18 04:30:00,75.6,72.8,29.96,ENE,65,7.0,9.0,91,0.08,,FEW,0.08,0.00,VWS V14.01,2013-04-18 08:30:00,
2013-04-18 04:33:00,75.1,72.3,29.96,East,87,5.0,8.0,91,0.07,,FEW,0.08,0.00,VWS V14.01,2013-04-18 08:33:00,
2013-04-18 04:34:00,75.0,72.2,29.96,East,91,3.0,8.0,91,0.07,,FEW,0.08,0.00,VWS V14.01,2013-04-18 08:34:00,
2013-04-18 04:35:00,75.0,72.2,29.96,ESE,115,8.0,8.0,91,0.07,,FEW,0.08,0.00,VWS V14.01,2013-04-18 08:35:00,
2013-04-18 04:38:00,75.1,72.3,29.96,East,90,5.0,13.0,91,0.07,,FEW,0.08,0.00,VWS V14.01,2013-04-18 08:38:00,
2013-04-18 04:40:00,75.1,72.3,29.96,East,84,7.0,13.0,91,0.07,,FEW,0.08,0.00,VWS V14.01,2013-04-18 08:40:00,
2013-04-18 04:43:00,75.1,72.3,29.96,East,92,5.0,10.0,91,0.04,,FEW,0.08,0.00,VWS V14.01,2013-04-18 08:43:00,
2013-04-18 04:44:00,75.1,72.3,29.96,SE,130,2.0,10.0,91,0.04,,FEW,0.08,0.00,VWS V14.01,2013-04-18 08:44:00,
2013-04-18 04:45:00,75.1,72.3,29.96,ESE,115,11.0,11.0,91,0.04,,FEW,0.08,0.00,VWS V14.01,2013-04-18 08:45:00,
2013-04-18 04:48:00,75.1,72.3,29.96,East,88,3.0,11.0,91,0.04,,FEW,0.08,0.00,VWS V14.01,2013-04-18 08:48:00,
2013-04-18 04:49:00,75.1,72.3,29.96,East,80,3.0,11.0,91,0.04,,FEW,0.08,0.00,VWS V14.01,2013-04-18 08:49:00,
2013-04-18 04:50:00,75.1,72.3,29.96,ESE,111,2.0,11.0,91,0.04,,FEW,0.08,0.00,VWS V14.01,2013-04-18 08:50:00,
2013-04-18 04:54:00,75.0,72.2,29.96,East,91,5.0,10.0,91,0.01,,FEW,0.08,0.00,VWS V14.01,2013-04-18 08:54:00,
2013-04-18 04:55:00,75.0,72.2,29.96,ESE,105,9.0,11.0,91,0.01,,FEW,0.08,0.00,VWS V14.01,2013-04-18 08:55:00,
2013-04-18 04:56:00,75.1,72.3,29.96,NE,34,2.0,11.0,91,0.01,,FEW,0.08,0.00,VWS V14.01,2013-04-18 08:56:00,
2013-04-18 04:59:00,75.0,72.2,29.96,ENE,76,7.0,11.0,91,0.01,,FEW,0.08,0.00,VWS V14.01,2013-04-18 08:59:00,
2013-04-18 05:00:00,75.0,72.2,29.96,NE,53,4.0,11.0,91,0.01,,FEW,0.08,0.00,VWS V14.01,2013-04-18 09:00:00,
2013-04-18 05:01:00,75.0,72.2,29.96,NNE,29,8.0,11.0,91,0.01,,FEW,0.08,0.00,VWS V14.01,2013-04-18 09:01:00,
2013-04-18 05:02:00,75.0,72.2,29.96,ESE,118,4.0,11.0,91,0.01,,FEW,0.08,0.00,VWS V14.01,2013-04-18 09:02:00,
2013-04-18 05:04:00,75.0,72.2,29.96,ESE,109,7.0,7.0,91,0.00,,FEW,0.08,0.00,VWS V14.01,2013-04-18 09:04:00,
2013-04-18 05:05:00,75.0,72.2,29.96,NE,47,5.0,10.0,91,0.00,,FEW,0.08,0.00,VWS V14.01,2013-04-18 09:05:00,
2013-04-18 05:06:00,75.0,72.2,29.96,ENE,71,5.0,10.0,91,0.00,,FEW,0.08,0.00,VWS V14.01,2013-04-18 09:06:00,
2013-04-18 05:07:00,75.0,72.2,29.96,East,81,3.0,10.0,91,0.00,,FEW,0.08,0.00,VWS V14.01,2013-04-18 09:07:00,
2013-04-18 05:09:00,74.9,72.1,29.96,ENE,69,5.0,10.0,91,0.00,,FEW,0.08,0.00,VWS V14.01,2013-04-18 09:09:00,
2013-04-18 05:10:00,74.9,72.1,29.96,ENE,58,4.0,10.0,91,0.00,,FEW,0.08,0.00,VWS V14.01,2013-04-18 09:10:00,
2013-04-18 05:11:00,74.9,72.1,29.96,NE,54,11.0,11.0,91,0.00,,FEW,0.08,0.00,VWS V14.01,2013-04-18 09:11:00,
2013-04-18 05:12:00,74.9,72.1,29.96,ENE,74,2.0,11.0,91,0.00,,FEW,0.08,0.00,VWS V14.01,2013-04-18 09:12:00,
2013-04-18 05:14:00,74.9,72.1,29.96,NE,51,4.0,10.0,91,0.00,,FEW,0.08,0.00,VWS V14.01,2013-04-18 09:14:00,
2013-04-18 05:15:00,74.9,72.1,29.96,ENE,66,9.0,10.0,91,0.00,,FEW,0.08,0.00,VWS V14.01,2013-04-18 09:15:00,
2013-04-18 05:16:00,74.8,72.0,29.96,East,92,2.0,10.0,91,0.00,,FEW,0.08,0.00,VWS V14.01,2013-04-18 09:16:00,
2013-04-18 05:17:00,74.8,72.0,29.96,NNE,32,3.0,10.0,91,0.00,,FEW,0.08,0.00,VWS V14.01,2013-04-18 09:17:00,
2013-04-18 05:19:00,74.8,72.0,29.96,North,11,5.0,10.0,91,0.00,,FEW,0.08,0.00,VWS V14.01,2013-04-18 09:19:00,
2013-04-18 05:20:00,74.9,72.1,29.96,East,89,2.0,10.0,91,0.00,,FEW,0.08,0.00,VWS V14.01,2013-04-18 09:20:00,
2013-04-18 05:21:00,74.9,72.1,29.96,NE,38,6.0,10.0,91,0.00,,FEW,0.08,0.00,VWS V14.01,2013-04-18 09:21:00,
2013-04-18 05:22:00,74.9,72.1,29.96,NE,55,5.0,10.0,91,0.00,,FEW,0.08,0.00,VWS V14.01,2013-04-18 09:22:00,
2013-04-18 05:24:00,74.9,72.1,29.96,NE,36,3.0,8.0,91,0.00,,FEW,0.08,0.00,VWS V14.01,2013-04-18 09:24:00,
2013-04-18 05:25:00,74.9,72.1,29.96,ENE,78,3.0,8.0,91,0.00,,FEW,0.08,0.00,VWS V14.01,2013-04-18 09:25:00,
2013-04-18 05:26:00,74.9,72.1,29.96,ENE,71,2.0,8.0,91,0.00,,FEW,0.08,0.00,VWS V14.01,2013-04-18 09:26:00,
2013-04-18 05:27:00,74.9,72.1,29.96,NE,44,2.0,8.0,91,0.00,,FEW,0.08,0.00,VWS V14.01,2013-04-18 09:27:00,
2013-04-18 05:29:00,75.0,72.2,29.96,ENE,65,3.0,8.0,91,0.00,,FEW,0.08,0.00,VWS V14.01,2013-04-18 09:29:00,
2013-04-18 05:30:00,75.0,72.2,29.96,ENE,77,3.0,8.0,91,0.00,,FEW,0.08,0.00,VWS V14.01,2013-04-18 09:30:00,
2013-04-18 05:31:00,75.0,72.2,29.96,ESE,119,4.0,8.0,91,0.00,,FEW,0.08,0.00,VWS V14.01,2013-04-18 09:31:00,
2013-04-18 05:32:00,75.0,72.2,29.96,ENE,67,2.0,5.0,91,0.00,,FEW,0.08,0.00,VWS V14.01,2013-04-18 09:32:00,
2013-04-18 05:34:00,75.0,72.2,29.96,ENE,73,2.0,5.0,91,0.00,,FEW,0.08,0.00,VWS V14.01,2013-04-18 09:34:00,
2013-04-18 05:35:00,75.0,72.2,29.96,ENE,57,8.0,8.0,91,0.00,,FEW,0.08,0.00,VWS V14.01,2013-04-18 09:35:00,
2013-04-18 05:36:00,75.0,71.9,29.96,East,82,2.0,8.0,90,0.00,,FEW,0.08,0.00,VWS V14.01,2013-04-18 09:36:00,
2013-04-18 05:37:00,75.0,71.9,29.96,ESE,111,8.0,8.0,90,0.00,,FEW,0.08,0.00,VWS V14.01,2013-04-18 09:37:00,
2013-04-18 05:38:00,74.9,71.8,29.96,NE,50,3.0,8.0,90,0.00,,FEW,0.08,0.00,VWS V14.01,2013-04-18 09:38:00,
2013-04-18 05:39:00,74.8,71.7,29.96,ENE,74,2.0,8.0,90,0.00,,FEW,0.08,0.00,VWS V14.01,2013-04-18 09:39:00,
2013-04-18 05:40:00,74.8,71.7,29.96,ENE,76,7.0,8.0,90,0.00,,FEW,0.08,0.00,VWS V14.01,2013-04-18 09:40:00,
2013-04-18 05:42:00,74.8,71.7,29.96,ESE,113,3.0,8.0,90,0.00,,FEW,0.08,0.00,VWS V14.01,2013-04-18 09:42:00,
2013-04-18 05:43:00,74.8,71.7,29.96,ENE,67,4.0,5.0,90,0.00,,FEW,0.08,0.00,VWS V14.01,2013-04-18 09:43:00,
2013-04-18 05:45:00,74.8,71.7,29.96,NE,49,2.0,6.0,90,0.00,,FEW,0.08,0.00,VWS V14.01,2013-04-18 09:45:00,
2013-04-18 05:47:00,74.9,71.8,29.96,East,79,2.0,7.0,90,0.00,,FEW,0.08,0.00,VWS V14.01,2013-04-18 09:47:00,
2013-04-18 05:48:00,74.9,71.4,29.96,NE,55,6.0,7.0,89,0.00,,FEW,0.08,0.00,VWS V14.01,2013-04-18 09:48:00,
2013-04-18 05:50:00,74.9,71.4,29.96,ENE,77,3.0,9.0,89,0.00,,FEW,0.08,0.00,VWS V14.01,2013-04-18 09:50:00,
2013-04-18 05:51:00,74.9,71.4,29.96,East,92,2.0,9.0,89,0.00,,FEW,0.08,0.00,VWS V14.01,2013-04-18 09:51:00,
2013-04-18 05:52:00,74.9,71.4,29.96,East,84,10.0,10.0,89,0.00,,FEW,0.08,0.00,VWS V14.01,2013-04-18 09:52:00,
2013-04-18 05:53:00,75.0,71.5,29.96,ENE,61,3.0,3.0,89,0.00,,FEW,0.08,0.00,VWS V14.01,2013-04-18 09:53:00,
2013-04-18 05:55:00,75.1,71.6,29.96,ENE,70,5.0,8.0,89,0.00,,FEW,0.08,0.00,VWS V14.01,2013-04-18 09:55:00,
2013-04-18 05:56:00,75.1,71.3,29.96,ENE,61,7.0,11.0,88,0.00,,FEW,0.08,0.00,VWS V14.01,2013-04-18 09:56:00,
2013-04-18 05:57:00,75.2,71.4,29.96,NE,53,4.0,11.0,88,0.00,,FEW,0.08,0.00,VWS V14.01,2013-04-18 09:57:00,
2013-04-18 05:58:00,75.3,71.5,29.96,ENE,61,4.0,11.0,88,0.00,,FEW,0.08,0.00,VWS V14.01,2013-04-18 09:58:00,
2013-04-18 06:00:00,75.4,71.3,29.96,NE,51,7.0,11.0,87,0.00,,FEW,0.08,0.00,VWS V14.01,2013-04-18 10:00:00,
2013-04-18 06:01:00,75.4,71.3,29.96,NE,53,3.0,11.0,87,0.00,,FEW,0.08,0.00,VWS V14.01,2013-04-18 10:01:00,
2013-04-18 06:02:00,75.5,71.4,29.96,NE,54,3.0,11.0,87,0.00,,FEW,0.08,0.00,VWS V14.01,2013-04-18 10:02:00,
2013-04-18 06:03:00,75.5,71.4,29.96,NNE,29,4.0,7.0,87,0.00,,FEW,0.08,0.00,VWS V14.01,2013-04-18 10:03:00,
2013-04-18 06:05:00,75.6,71.5,29.96,NE,48,4.0,7.0,87,0.00,,FEW,0.08,0.00,VWS V14.01,2013-04-18 10:05:00,
2013-04-18 06:06:00,75.6,71.5,29.96,East,87,3.0,7.0,87,0.00,,FEW,0.08,0.00,VWS V14.01,2013-04-18 10:06:00,
2013-04-18 06:07:00,75.6,71.5,29.96,ENE,76,3.0,7.0,87,0.00,,FEW,0.08,0.00,VWS V14.01,2013-04-18 10:07:00,
2013-04-18 06:08:00,75.7,71.6,29.96,ENE,69,2.0,8.0,87,0.00,,FEW,0.08,0.00,VWS V14.01,2013-04-18 10:08:00,
2013-04-18 06:10:00,75.7,71.6,29.96,ENE,58,5.0,8.0,87,0.00,,FEW,0.08,0.00,VWS V14.01,2013-04-18 10:10:00,
2013-04-18 06:11:00,75.7,71.6,29.96,ENE,73,4.0,8.0,87,0.00,,FEW,0.08,0.00,VWS V14.01,2013-04-18 10:11:00,
2013-04-18 06:12:00,75.7,71.6,29.96,NE,48,4.0,8.0,87,0.00,,FEW,0.08,0.00,VWS V14.01,2013-04-18 10:12:00,
2013-04-18 06:13:00,75.7,71.6,29.96,NE,46,6.0,6.0,87,0.00,,FEW,0.08,0.00,VWS V14.01,2013-04-18 10:13:00,
2013-04-18 06:14:00,75.7,71.6,29.96,ENE,58,3.0,6.0,87,0.00,,FEW,0.08,0.00,VWS V14.01,2013-04-18 10:14:00,
2013-04-18 06:16:00,75.8,71.7,29.96,ENE,59,2.0,7.0,87,0.00,,FEW,0.08,0.00,VWS V14.01,2013-04-18 10:16:00,
2013-04-18 06:17:00,75.8,71.7,29.96,ENE,63,3.0,7.0,87,0.00,,FEW,0.08,0.00,VWS V14.01,2013-04-18 10:17:00,
2013-04-18 06:18:00,75.8,71.7,29.96,East,92,6.0,7.0,87,0.00,,FEW,0.08,0.00,VWS V14.01,2013-04-18 10:18:00,
2013-04-18 06:19:00,75.8,71.7,29.96,NE,46,5.0,7.0,87,0.00,,FEW,0.08,0.00,VWS V14.01,2013-04-18 10:19:00,
2013-04-18 06:21:00,75.9,71.4,29.96,NE,50,5.0,7.0,86,0.00,,FEW,0.08,0.00,VWS V14.01,2013-04-18 10:21:00,
2013-04-18 06:22:00,75.9,71.4,29.96,ENE,78,5.0,7.0,86,0.00,,FEW,0.08,0.00,VWS V14.01,2013-04-18 10:22:00,
2013-04-18 06:23:00,75.9,71.4,29.96,ENE,71,2.0,7.0,86,0.00,,FEW,0.08,0.00,VWS V14.01,2013-04-18 10:23:00,
2013-04-18 06:24:00,76.0,71.5,29.96,ESE,108,4.0,7.0,86,0.00,,FEW,0.08,0.00,VWS V14.01,2013-04-18 10:24:00,
2013-04-18 06:26:00,76.0,71.5,29.96,ENE,77,4.0,7.0,86,0.00,,FEW,0.08,0.00,VWS V14.01,2013-04-18 10:26:00,
2013-04-18 06:27:00,76.1,71.6,29.96,East,83,7.0,8.0,86,0.00,,FEW,0.08,0.00,VWS V14.01,2013-04-18 10:27:00,
2013-04-18 06:28:00,76.2,71.7,29.96,SE,144,6.0,9.0,86,0.00,,FEW,0.08,0.00,VWS V14.01,2013-04-18 10:28:00,
2013-04-18 06:29:00,76.2,71.4,29.96,East,94,3.0,9.0,85,0.00,,FEW,0.08,0.00,VWS V14.01,2013-04-18 10:29:00,
2013-04-18 06:32:00,76.3,71.5,29.96,ENE,67,5.0,9.0,85,0.00,,FEW,0.08,0.00,VWS V14.01,2013-04-18 10:32:00,
2013-04-18 06:33:00,76.4,71.6,29.96,NE,47,3.0,4.0,85,0.00,,FEW,0.08,0.00,VWS V14.01,2013-04-18 10:33:00,
2013-04-18 06:34:00,76.4,71.6,29.96,NE,46,5.0,7.0,85,0.00,,FEW,0.08,0.00,VWS V14.01,2013-04-18 10:34:00,
2013-04-18 06:37:00,76.5,71.7,29.96,East,83,5.0,12.0,85,0.00,,FEW,0.08,0.00,VWS V14.01,2013-04-18 10:37:00,
2013-04-18 06:38:00,76.6,71.8,29.96,ENE,69,5.0,12.0,85,0.00,,FEW,0.08,0.00,VWS V14.01,2013-04-18 10:38:00,
2013-04-18 06:39:00,76.6,71.8,29.96,NE,50,2.0,12.0,85,0.00,,FEW,0.08,0.00,VWS V14.01,2013-04-18 10:39:00,
2013-04-18 06:40:00,76.7,71.9,29.96,NE,51,7.0,12.0,85,0.00,,FEW,0.08,0.00,VWS V14.01,2013-04-18 10:40:00,
2013-04-18 06:42:00,76.8,71.9,29.96,ESE,103,2.0,12.0,85,0.00,,FEW,0.08,0.00,VWS V14.01,2013-04-18 10:42:00,
2013-04-18 06:43:00,76.8,71.9,29.96,ENE,70,5.0,5.0,85,0.00,,FEW,0.08,0.00,VWS V14.01,2013-04-18 10:43:00,
2013-04-18 06:44:00,76.9,72.1,29.96,East,82,6.0,6.0,85,0.00,,FEW,0.08,0.00,VWS V14.01,2013-04-18 10:44:00,
2013-04-18 06:45:00,76.9,72.1,29.96,ENE,71,2.0,6.0,85,0.00,,FEW,0.08,0.00,VWS V14.01,2013-04-18 10:45:00,
2013-04-18 06:47:00,77.0,72.2,29.97,East,91,3.0,7.0,85,0.00,,FEW,0.08,0.00,VWS V14.01,2013-04-18 10:47:00,
2013-04-18 06:48:00,77.0,72.2,29.97,East,80,3.0,7.0,85,0.00,,FEW,0.08,0.00,VWS V14.01,2013-04-18 10:48:00,
2013-04-18 06:49:00,77.0,72.2,29.97,East,82,5.0,8.0,85,0.00,,FEW,0.08,0.00,VWS V14.01,2013-04-18 10:49:00,
2013-04-18 06:50:00,77.0,72.2,29.97,NE,47,5.0,8.0,85,0.00,,FEW,0.08,0.00,VWS V14.01,2013-04-18 10:50:00,
2013-04-18 06:52:00,77.1,72.2,29.97,East,100,5.0,8.0,85,0.00,,FEW,0.08,0.00,VWS V14.01,2013-04-18 10:52:00,
2013-04-18 06:53:00,77.0,72.2,29.97,ENE,65,5.0,6.0,85,0.00,,FEW,0.08,0.00,VWS V14.01,2013-04-18 10:53:00,
2013-04-18 06:54:00,77.1,72.2,29.97,ENE,66,7.0,7.0,85,0.00,,FEW,0.08,0.00,VWS V14.01,2013-04-18 10:54:00,
2013-04-18 06:55:00,77.1,72.2,29.97,ENE,71,9.0,9.0,85,0.00,,FEW,0.08,0.00,VWS V14.01,2013-04-18 10:55:00,
2013-04-18 06:57:00,77.1,72.2,29.97,ENE,71,5.0,9.0,85,0.00,,FEW,0.08,0.00,VWS V14.01,2013-04-18 10:57:00,
2013-04-18 06:58:00,77.2,72.3,29.97,East,94,5.0,9.0,85,0.00,,FEW,0.08,0.00,VWS V14.01,2013-04-18 10:58:00,
2013-04-18 06:59:00,77.2,72.3,29.97,East,86,6.0,9.0,85,0.00,,FEW,0.08,0.00,VWS V14.01,2013-04-18 10:59:00,
2013-04-18 07:00:00,77.2,72.3,29.97,NE,46,4.0,9.0,85,0.00,,FEW,0.08,0.00,VWS V14.01,2013-04-18 11:00:00,
2013-04-18 07:02:00,77.3,72.8,29.97,East,82,5.0,9.0,86,0.00,,FEW,0.08,0.00,VWS V14.01,2013-04-18 11:02:00,
2013-04-18 07:03:00,77.3,72.8,29.97,NE,47,3.0,5.0,86,0.00,,FEW,0.08,0.00,VWS V14.01,2013-04-18 11:03:00,
2013-04-18 07:04:00,77.3,72.8,29.97,ENE,70,11.0,11.0,86,0.00,,FEW,0.08,0.00,VWS V14.01,2013-04-18 11:04:00,
2013-04-18 07:05:00,77.3,72.8,29.97,ENE,66,8.0,11.0,86,0.00,,FEW,0.08,5.00,VWS V14.01,2013-04-18 11:05:00,
2013-04-18 07:08:00,77.4,72.9,29.97,NE,56,2.0,11.0,86,0.00,,FEW,0.08,9.00,VWS V14.01,2013-04-18 11:08:00,
2013-04-18 07:09:00,77.4,72.9,29.97,NNE,22,5.0,11.0,86,0.00,,FEW,0.08,9.00,VWS V14.01,2013-04-18 11:09:00,
2013-04-18 07:10:00,77.4,72.9,29.97,ESE,109,3.0,11.0,86,0.00,,FEW,0.08,9.00,VWS V14.01,2013-04-18 11:10:00,
2013-04-18 07:13:00,77.5,73.0,29.97,ENE,59,3.0,5.0,86,0.00,,FEW,0.08,14.00,VWS V14.01,2013-04-18 11:13:00,
2013-04-18 07:14:00,77.5,73.0,29.97,East,95,2.0,7.0,86,0.00,,FEW,0.08,14.00,VWS V14.01,2013-04-18 11:14:00,
2013-04-18 07:15:00,77.6,73.1,29.97,ENE,69,1.0,7.0,86,0.00,,FEW,0.08,16.00,VWS V14.01,2013-04-18 11:15:00,
2013-04-18 07:16:00,77.6,73.1,29.97,NE,56,3.0,7.0,86,0.00,,FEW,0.08,16.00,VWS V14.01,2013-04-18 11:16:00,
2013-04-18 07:18:00,77.6,73.1,29.97,ESE,107,2.0,7.0,86,0.00,,FEW,0.08,16.00,VWS V14.01,2013-04-18 11:18:00,
2013-04-18 07:19:00,77.6,73.1,29.97,East,101,5.0,7.0,86,0.00,,FEW,0.08,16.00,VWS V14.01,2013-04-18 11:19:00,
2013-04-18 07:20:00,77.6,73.1,29.97,ESE,113,2.0,7.0,86,0.00,,FEW,0.08,16.00,VWS V14.01,2013-04-18 11:20:00,
2013-04-18 07:21:00,77.6,73.1,29.97,East,99,3.0,7.0,86,0.00,,FEW,0.08,14.00,VWS V14.01,2013-04-18 11:21:00,
2013-04-18 07:23:00,77.7,73.2,29.97,ENE,71,1.0,3.0,86,0.00,,FEW,0.08,21.00,VWS V14.01,2013-04-18 11:23:00,
2013-04-18 07:24:00,77.7,73.2,29.97,East,101,2.0,3.0,86,0.00,,FEW,0.08,21.00,VWS V14.01,2013-04-18 11:24:00,
2013-04-18 07:25:00,77.8,73.6,29.97,SSE,148,5.0,6.0,87,0.00,,FEW,0.08,16.00,VWS V14.01,2013-04-18 11:25:00,
2013-04-18 07:26:00,77.8,73.6,29.97,ENE,74,2.0,6.0,87,0.00,,FEW,0.08,16.00,VWS V14.01,2013-04-18 11:26:00,
2013-04-18 07:29:00,77.8,73.6,29.97,NE,55,1.0,6.0,87,0.00,,FEW,0.08,16.00,VWS V14.01,2013-04-18 11:29:00,
2013-04-18 07:30:00,77.8,73.6,29.97,East,81,2.0,6.0,87,0.00,,FEW,0.08,16.00,VWS V14.01,2013-04-18 11:30:00,
2013-04-18 07:31:00,77.8,73.6,29.98,ENE,77,2.0,6.0,87,0.00,,FEW,0.08,18.00,VWS V14.01,2013-04-18 11:31:00,
2013-04-18 07:34:00,77.9,73.7,29.98,NE,53,3.0,5.0,87,0.00,,FEW,0.08,18.00,VWS V14.01,2013-04-18 11:34:00,
2013-04-18 07:35:00,77.9,73.7,29.98,ESE,117,3.0,5.0,87,0.00,,FEW,0.08,18.00,VWS V14.01,2013-04-18 11:35:00,
2013-04-18 07:37:00,77.9,73.7,29.98,ENE,61,3.0,6.0,87,0.00,,FEW,0.08,19.00,VWS V14.01,2013-04-18 11:37:00,
2013-04-18 07:39:00,77.9,73.7,29.98,ENE,65,0.0,6.0,87,0.00,,FEW,0.08,23.00,VWS V14.01,2013-04-18 11:39:00,
2013-04-18 07:40:00,77.9,73.7,29.98,SE,146,2.0,6.0,87,0.00,,FEW,0.08,25.00,VWS V14.01,2013-04-18 11:40:00,
2013-04-18 07:41:00,78.0,73.8,29.98,ESE,108,2.0,6.0,87,0.00,,FEW,0.08,26.00,VWS V14.01,2013-04-18 11:41:00,
2013-04-18 07:42:00,78.0,73.8,29.98,ESE,121,1.0,2.0,87,0.00,,FEW,0.08,26.00,VWS V14.01,2013-04-18 11:42:00,
2013-04-18 07:44:00,78.0,73.8,29.98,ESE,112,2.0,3.0,87,0.00,,FEW,0.08,28.00,VWS V14.01,2013-04-18 11:44:00,
2013-04-18 07:45:00,78.0,73.8,29.98,South,172,1.0,4.0,87,0.00,,FEW,0.08,32.00,VWS V14.01,2013-04-18 11:45:00,
2013-04-18 07:46:00,78.0,73.8,29.98,SE,126,4.0,4.0,87,0.00,,FEW,0.08,32.00,VWS V14.01,2013-04-18 11:46:00,
2013-04-18 07:48:00,78.0,73.8,29.99,SE,131,1.0,5.0,87,0.00,,FEW,0.08,33.00,VWS V14.01,2013-04-18 11:48:00,
2013-04-18 07:49:00,78.0,73.8,29.99,East,86,2.0,5.0,87,0.00,,FEW,0.08,33.00,VWS V14.01,2013-04-18 11:49:00,
2013-04-18 07:50:00,78.0,73.8,29.99,SE,131,2.0,8.0,87,0.00,,FEW,0.08,33.00,VWS V14.01,2013-04-18 11:50:00,
2013-04-18 07:51:00,78.0,73.8,29.99,SE,132,1.0,8.0,87,0.00,,FEW,0.08,33.00,VWS V14.01,2013-04-18 11:51:00,
2013-04-18 07:53:00,78.1,73.9,29.99,SE,136,5.0,5.0,87,0.00,,FEW,0.08,35.00,VWS V14.01,2013-04-18 11:53:00,
2013-04-18 07:54:00,78.1,73.9,29.99,ESE,114,1.0,6.0,87,0.00,,FEW,0.08,35.00,VWS V14.01,2013-04-18 11:54:00,
2013-04-18 07:56:00,78.1,73.9,29.99,East,87,0.0,6.0,87,0.00,,FEW,0.08,37.00,VWS V14.01,2013-04-18 11:56:00,
2013-04-18 07:58:00,78.1,73.9,29.99,ENE,64,1.0,6.0,87,0.00,,FEW,0.08,37.00,VWS V14.01,2013-04-18 11:58:00,
2013-04-18 07:59:00,78.2,74.0,29.99,East,91,3.0,6.0,87,0.00,,FEW,0.08,39.00,VWS V14.01,2013-04-18 11:59:00,
2013-04-18 08:01:00,78.2,74.0,29.99,SE,130,5.0,6.0,87,0.00,,FEW,0.08,42.00,VWS V14.01,2013-04-18 12:01:00,
2013-04-18 08:04:00,78.3,74.1,29.99,East,94,2.0,5.0,87,0.00,,FEW,0.08,49.00,VWS V14.01,2013-04-18 12:04:00,
2013-04-18 08:05:00,78.3,74.1,29.99,SE,146,5.0,7.0,87,0.00,,FEW,0.08,51.00,VWS V14.01,2013-04-18 12:05:00,
2013-04-18 08:06:00,78.3,74.1,29.99,East,94,3.0,7.0,87,0.00,,FEW,0.08,53.00,VWS V14.01,2013-04-18 12:06:00,
2013-04-18 08:09:00,78.2,73.7,29.99,East,100,6.0,10.0,86,0.00,,FEW,0.08,62.00,VWS V14.01,2013-04-18 12:09:00,
2013-04-18 08:10:00,78.2,73.7,29.99,East,79,0.0,10.0,86,0.00,,FEW,0.08,69.00,VWS V14.01,2013-04-18 12:10:00,
2013-04-18 08:11:00,78.2,73.7,29.99,SE,134,3.0,10.0,86,0.00,,FEW,0.08,67.00,VWS V14.01,2013-04-18 12:11:00,
2013-04-18 08:14:00,78.3,73.4,29.99,SE,144,1.0,7.0,85,0.00,,FEW,0.08,65.00,VWS V14.01,2013-04-18 12:14:00,
2013-04-18 08:15:00,78.3,73.4,29.99,East,88,2.0,7.0,85,0.00,,FEW,0.08,69.00,VWS V14.01,2013-04-18 12:15:00,
2013-04-18 08:16:00,78.4,73.5,29.99,SSE,153,7.0,10.0,85,0.00,,FEW,0.08,76.00,VWS V14.01,2013-04-18 12:16:00,
2013-04-18 08:19:00,78.5,73.3,29.99,SE,137,0.0,10.0,84,0.00,,FEW,0.08,84.00,VWS V14.01,2013-04-18 12:19:00,
2013-04-18 08:20:00,78.5,73.3,29.99,ESE,111,2.0,10.0,84,0.00,,FEW,0.08,86.00,VWS V14.01,2013-04-18 12:20:00,
2013-04-18 08:22:00,78.6,73.4,29.99,ESE,109,9.0,10.0,84,0.00,,FEW,0.08,84.00,VWS V14.01,2013-04-18 12:22:00,
2013-04-18 08:25:00,78.8,73.6,29.99,ESE,115,1.0,6.0,84,0.00,,FEW,0.08,88.00,VWS V14.01,2013-04-18 12:25:00,
2013-04-18 08:27:00,78.9,73.3,29.99,ESE,115,11.0,12.0,83,0.00,,FEW,0.08,93.00,VWS V14.01,2013-04-18 12:27:00,
2013-04-18 08:30:00,79.1,73.5,29.99,East,90,3.0,12.0,83,0.00,,FEW,0.08,109.00,VWS V14.01,2013-04-18 12:30:00,
2013-04-18 08:32:00,79.2,73.6,30.00,ESE,120,12.0,12.0,83,0.00,,FEW,0.08,128.00,VWS V14.01,2013-04-18 12:32:00,
2013-04-18 08:33:00,79.2,73.6,30.00,SE,131,10.0,10.0,83,0.00,,FEW,0.08,128.00,VWS V14.01,2013-04-18 12:33:00,
2013-04-18 08:35:00,79.3,73.7,30.00,ESE,113,4.0,10.0,83,0.00,,FEW,0.08,135.00,VWS V14.01,2013-04-18 12:35:00,
2013-04-18 08:37:00,79.5,73.9,30.00,ESE,114,0.0,11.0,83,0.00,,FEW,0.08,151.00,VWS V14.01,2013-04-18 12:37:00,
2013-04-18 08:38:00,79.5,73.9,30.00,SE,126,2.0,11.0,83,0.00,,FEW,0.08,151.00,VWS V14.01,2013-04-18 12:38:00,
2013-04-18 08:40:00,79.7,74.1,30.00,SE,131,2.0,11.0,83,0.00,,FEW,0.08,160.00,VWS V14.01,2013-04-18 12:40:00,
2013-04-18 08:42:00,79.8,73.8,30.00,SSE,154,4.0,11.0,82,0.00,,FEW,0.08,169.00,VWS V14.01,2013-04-18 12:42:00,
2013-04-18 08:43:00,79.8,73.8,30.00,ESE,103,3.0,5.0,82,0.00,,FEW,0.08,172.00,VWS V14.01,2013-04-18 12:43:00,
2013-04-18 08:45:00,79.9,73.6,30.00,ESE,102,3.0,8.0,81,0.00,,FEW,0.08,174.00,VWS V14.01,2013-04-18 12:45:00,
2013-04-18 08:47:00,80.0,74.0,30.00,East,96,6.0,8.0,82,0.00,,FEW,0.08,188.00,VWS V14.01,2013-04-18 12:47:00,
2013-04-18 08:48:00,80.1,74.1,30.00,ESE,111,9.0,9.0,82,0.00,,FEW,0.08,188.00,VWS V14.01,2013-04-18 12:48:00,
2013-04-18 08:50:00,80.1,73.4,30.00,ESE,103,4.0,15.0,80,0.00,,FEW,0.08,188.00,VWS V14.01,2013-04-18 12:50:00,
2013-04-18 08:52:00,80.1,73.4,30.00,ESE,107,7.0,7.0,80,0.00,,FEW,0.08,199.00,VWS V14.01,2013-04-18 12:52:00,
2013-04-18 08:53:00,80.2,73.5,30.00,SE,138,3.0,7.0,80,0.00,,FEW,0.08,199.00,VWS V14.01,2013-04-18 12:53:00,
2013-04-18 08:55:00,80.5,73.8,30.00,ESE,115,2.0,8.0,80,0.00,,FEW,0.08,239.00,VWS V14.01,2013-04-18 12:55:00,
2013-04-18 08:56:00,80.5,73.8,30.00,ESE,115,2.0,8.0,80,0.00,,FEW,0.08,239.00,VWS V14.01,2013-04-18 12:56:00,
2013-04-18 08:58:00,80.7,74.0,30.00,SE,145,2.0,8.0,80,0.00,,FEW,0.08,417.00,VWS V14.01,2013-04-18 12:58:00,
2013-04-18 09:01:00,80.9,73.8,30.00,ESE,118,2.0,11.0,79,0.00,,FEW,0.08,364.00,VWS V14.01,2013-04-18 13:01:00,
2013-04-18 09:02:00,80.9,73.8,30.00,ESE,117,4.0,11.0,79,0.00,,FEW,0.08,308.00,VWS V14.01,2013-04-18 13:02:00,
2013-04-18 09:03:00,81.0,73.9,30.00,SSE,160,10.0,10.0,79,0.00,,FEW,0.08,218.00,VWS V14.01,2013-04-18 13:03:00,
2013-04-18 09:06:00,81.0,73.9,30.00,SSE,148,4.0,10.0,79,0.00,,FEW,0.08,397.00,VWS V14.01,2013-04-18 13:06:00,
2013-04-18 09:07:00,81.1,74.0,30.00,SE,134,5.0,10.0,79,0.00,,FEW,0.08,415.00,VWS V14.01,2013-04-18 13:07:00,
2013-04-18 09:08:00,81.2,74.1,30.00,East,98,1.0,10.0,79,0.00,,FEW,0.08,415.00,VWS V14.01,2013-04-18 13:08:00,
2013-04-18 09:11:00,81.5,74.7,30.00,ENE,61,2.0,10.0,80,0.00,,FEW,0.08,454.00,VWS V14.01,2013-04-18 13:11:00,
2013-04-18 09:12:00,81.5,74.7,30.00,SE,134,8.0,10.0,80,0.00,,FEW,0.08,454.00,VWS V14.01,2013-04-18 13:12:00,
2013-04-18 09:13:00,81.7,74.9,30.00,ESE,113,3.0,3.0,80,0.00,,FEW,0.08,404.00,VWS V14.01,2013-04-18 13:13:00,
2013-04-18 09:14:00,81.7,74.6,30.00,East,88,7.0,7.0,79,0.00,,FEW,0.08,415.00,VWS V14.01,2013-04-18 13:14:00,
2013-04-18 09:16:00,81.9,74.4,30.01,ENE,63,3.0,10.0,78,0.00,,FEW,0.08,478.00,VWS V14.01,2013-04-18 13:16:00,
2013-04-18 09:17:00,81.9,74.4,30.01,NE,52,2.0,10.0,78,0.00,,FEW,0.08,478.00,VWS V14.01,2013-04-18 13:17:00,
2013-04-18 09:18:00,82.0,74.5,30.01,SE,132,3.0,10.0,78,0.00,,FEW,0.08,494.00,VWS V14.01,2013-04-18 13:18:00,
2013-04-18 09:19:00,82.1,74.6,30.01,SSE,155,3.0,10.0,78,0.00,,FEW,0.08,494.00,VWS V14.01,2013-04-18 13:19:00,
2013-04-18 09:21:00,82.4,74.9,30.01,East,98,6.0,10.0,78,0.00,,FEW,0.08,512.00,VWS V14.01,2013-04-18 13:21:00,
2013-04-18 09:22:00,82.3,74.8,30.01,East,94,7.0,10.0,78,0.00,,FEW,0.08,496.00,VWS V14.01,2013-04-18 13:22:00,
2013-04-18 09:23:00,82.4,74.5,30.01,ESE,120,9.0,9.0,77,0.00,,FEW,0.08,496.00,VWS V14.01,2013-04-18 13:23:00,
2013-04-18 09:24:00,82.4,74.5,30.01,East,87,2.0,9.0,77,0.00,,FEW,0.08,496.00,VWS V14.01,2013-04-18 13:24:00,
2013-04-18 09:27:00,82.6,74.7,30.01,ESE,105,2.0,9.0,77,0.00,,FEW,0.08,489.00,VWS V14.01,2013-04-18 13:27:00,
2013-04-18 09:29:00,82.7,74.8,30.01,East,94,2.0,9.0,77,0.00,,FEW,0.08,566.00,VWS V14.01,2013-04-18 13:29:00,
2013-04-18 09:32:00,82.9,74.9,30.01,ESE,116,2.0,9.0,77,0.00,,FEW,0.08,534.00,VWS V14.01,2013-04-18 13:32:00,
2013-04-18 09:34:00,83.1,75.2,30.01,SSE,153,3.0,7.0,77,0.00,,FEW,0.08,452.00,VWS V14.01,2013-04-18 13:34:00,
2013-04-18 09:37:00,83.0,74.7,30.01,SE,138,6.0,9.0,76,0.00,,FEW,0.08,385.00,VWS V14.01,2013-04-18 13:37:00,
2013-04-18 09:39:00,82.9,74.2,30.01,SSE,168,8.0,13.0,75,0.00,,FEW,0.08,443.00,VWS V14.01,2013-04-18 13:39:00,
2013-04-18 09:42:00,82.9,74.6,30.01,ESE,108,3.0,13.0,76,0.00,,FEW,0.08,381.00,VWS V14.01,2013-04-18 13:42:00,
2013-04-18 09:44:00,82.9,74.6,30.01,SSE,159,5.0,9.0,76,0.00,,FEW,0.08,571.00,VWS V14.01,2013-04-18 13:44:00,
2013-04-18 09:45:00,83.0,75.1,30.01,SE,138,7.0,9.0,77,0.00,,FEW,0.08,591.00,VWS V14.01,2013-04-18 13:45:00,
2013-04-18 09:47:00,83.2,75.2,30.01,SW,223,2.0,9.0,77,0.00,,FEW,0.08,568.00,VWS V14.01,2013-04-18 13:47:00,
2013-04-18 09:48:00,83.3,75.7,30.01,East,98,1.0,9.0,78,0.00,,FEW,0.08,555.00,VWS V14.01,2013-04-18 13:48:00,
2013-04-18 09:49:00,83.4,75.4,30.01,ESE,114,7.0,9.0,77,0.00,,FEW,0.08,554.00,VWS V14.01,2013-04-18 13:49:00,
2013-04-18 09:50:00,83.5,75.5,30.01,SE,136,8.0,9.0,77,0.00,,FEW,0.08,559.00,VWS V14.01,2013-04-18 13:50:00,
2013-04-18 09:52:00,83.5,75.1,30.01,ESE,114,2.0,12.0,76,0.00,,FEW,0.08,577.00,VWS V14.01,2013-04-18 13:52:00,
2013-04-18 09:53:00,83.5,75.1,30.01,East,99,3.0,3.0,76,0.00,,FEW,0.08,566.00,VWS V14.01,2013-04-18 13:53:00,
2013-04-18 09:54:00,83.6,75.2,30.01,East,83,3.0,11.0,76,0.00,,FEW,0.08,564.00,VWS V14.01,2013-04-18 13:54:00,
2013-04-18 09:55:00,83.7,75.3,30.01,ESE,120,2.0,11.0,76,0.00,,FEW,0.08,563.00,VWS V14.01,2013-04-18 13:55:00,
2013-04-18 09:57:00,83.7,74.9,30.01,ESE,111,3.0,11.0,75,0.00,,FEW,0.08,591.00,VWS V14.01,2013-04-18 13:57:00,
2013-04-18 09:58:00,83.7,74.9,30.01,East,92,2.0,11.0,75,0.00,,FEW,0.08,591.00,VWS V14.01,2013-04-18 13:58:00,
2013-04-18 09:59:00,83.9,75.5,30.01,ESE,104,7.0,11.0,76,0.00,,FEW,0.08,425.00,VWS V14.01,2013-04-18 13:59:00,
2013-04-18 10:00:00,83.8,75.0,30.01,ESE,113,10.0,11.0,75,0.00,,FEW,0.08,425.00,VWS V14.01,2013-04-18 14:00:00,
2013-04-18 10:02:00,83.8,75.0,30.02,ESE,123,5.0,12.0,75,0.00,,FEW,0.08,617.00,VWS V14.01,2013-04-18 14:02:00,
2013-04-18 10:03:00,83.7,74.5,30.02,ENE,65,7.0,9.0,74,0.00,,FEW,0.08,605.00,VWS V14.01,2013-04-18 14:03:00,
2013-04-18 10:05:00,83.7,74.9,30.02,ESE,104,4.0,9.0,75,0.00,,FEW,0.08,608.00,VWS V14.01,2013-04-18 14:05:00,
2013-04-18 10:07:00,83.7,74.9,30.02,SE,133,8.0,10.0,75,0.00,,FEW,0.08,624.00,VWS V14.01,2013-04-18 14:07:00,
2013-04-18 10:08:00,83.6,74.4,30.02,SE,140,8.0,10.0,74,0.00,,FEW,0.08,622.00,VWS V14.01,2013-04-18 14:08:00,
2013-04-18 10:10:00,83.6,74.4,30.02,ESE,103,10.0,13.0,74,0.00,,FEW,0.08,622.00,VWS V14.01,2013-04-18 14:10:00,
2013-04-18 10:11:00,83.6,74.8,30.02,ESE,121,5.0,13.0,75,0.00,,FEW,0.08,626.00,VWS V14.01,2013-04-18 14:11:00,
2013-04-18 10:12:00,83.6,74.8,30.02,ESE,121,3.0,13.0,75,0.00,,FEW,0.08,642.00,VWS V14.01,2013-04-18 14:12:00,
2013-04-18 10:13:00,83.5,74.8,30.02,East,96,7.0,10.0,75,0.00,,FEW,0.08,642.00,VWS V14.01,2013-04-18 14:13:00,
2013-04-18 10:15:00,83.5,75.1,30.02,ESE,111,5.0,10.0,76,0.00,,FEW,0.08,686.00,VWS V14.01,2013-04-18 14:15:00,
2013-04-18 10:16:00,83.6,75.2,30.02,ESE,107,2.0,10.0,76,0.00,,FEW,0.08,686.00,VWS V14.01,2013-04-18 14:16:00,
2013-04-18 10:17:00,83.6,75.2,30.02,SSE,158,5.0,10.0,76,0.00,,FEW,0.08,698.00,VWS V14.01,2013-04-18 14:17:00,
2013-04-18 10:18:00,83.6,74.8,30.02,SE,136,6.0,10.0,75,0.00,,FEW,0.08,698.00,VWS V14.01,2013-04-18 14:18:00,
2013-04-18 10:20:00,83.5,75.1,30.02,SE,140,2.0,10.0,76,0.00,,FEW,0.08,649.00,VWS V14.01,2013-04-18 14:20:00,
2013-04-18 10:21:00,83.6,75.2,30.02,ESE,111,5.0,12.0,76,0.00,,FEW,0.08,649.00,VWS V14.01,2013-04-18 14:21:00,
2013-04-18 10:22:00,83.6,75.2,30.02,East,94,9.0,12.0,76,0.00,,FEW,0.08,666.00,VWS V14.01,2013-04-18 14:22:00,
2013-04-18 10:23:00,83.6,74.8,30.02,ESE,111,5.0,9.0,75,0.00,,FEW,0.08,666.00,VWS V14.01,2013-04-18 14:23:00,
2013-04-18 10:26:00,83.8,75.4,30.02,ENE,69,4.0,9.0,76,0.00,,FEW,0.08,670.00,VWS V14.01,2013-04-18 14:26:00,
2013-04-18 10:27:00,83.9,75.1,30.02,ENE,72,1.0,9.0,75,0.00,,FEW,0.08,677.00,VWS V14.01,2013-04-18 14:27:00,
2013-04-18 10:28:00,84.0,75.2,30.02,ESE,102,5.0,9.0,75,0.00,,FEW,0.08,684.00,VWS V14.01,2013-04-18 14:28:00,
2013-04-18 10:31:00,84.1,75.3,30.02,ESE,106,1.0,9.0,75,0.00,,FEW,0.08,698.00,VWS V14.01,2013-04-18 14:31:00,
2013-04-18 10:32:00,84.1,74.9,30.02,ESE,115,2.0,9.0,74,0.00,,FEW,0.08,696.00,VWS V14.01,2013-04-18 14:32:00,
2013-04-18 10:33:00,84.1,74.9,30.02,East,86,2.0,3.0,74,0.00,,FEW,0.08,696.00,VWS V14.01,2013-04-18 14:33:00,
2013-04-18 10:34:00,84.2,75.0,30.02,East,100,6.0,6.0,74,0.00,,FEW,0.08,707.00,VWS V14.01,2013-04-18 14:34:00,
2013-04-18 10:36:00,84.2,74.6,30.02,ESE,103,5.0,9.0,73,0.00,,FEW,0.08,693.00,VWS V14.01,2013-04-18 14:36:00,
2013-04-18 10:38:00,84.1,74.5,30.02,SE,130,3.0,9.0,73,0.00,,FEW,0.08,239.00,VWS V14.01,2013-04-18 14:38:00,
2013-04-18 10:39:00,84.0,74.4,30.02,SE,130,4.0,9.0,73,0.00,,FEW,0.08,239.00,VWS V14.01,2013-04-18 14:39:00,
2013-04-18 10:41:00,83.6,74.4,30.02,SE,142,11.0,11.0,74,0.00,,FEW,0.08,744.00,VWS V14.01,2013-04-18 14:41:00,
2013-04-18 10:43:00,83.5,74.3,30.02,ESE,116,11.0,11.0,74,0.00,,FEW,0.08,735.00,VWS V14.01,2013-04-18 14:43:00,
2013-04-18 10:44:00,83.6,74.4,30.02,SE,125,7.0,11.0,74,0.00,,FEW,0.08,737.00,VWS V14.01,2013-04-18 14:44:00,
2013-04-18 10:47:00,83.8,75.0,30.02,SE,139,5.0,11.0,75,0.00,,FEW,0.08,766.00,VWS V14.01,2013-04-18 14:47:00,
2013-04-18 10:48:00,84.1,75.3,30.02,SE,130,3.0,11.0,75,0.00,,FEW,0.08,830.00,VWS V14.01,2013-04-18 14:48:00,
2013-04-18 10:49:00,84.1,75.3,30.02,ENE,65,1.0,11.0,75,0.00,,FEW,0.08,830.00,VWS V14.01,2013-04-18 14:49:00,
2013-04-18 10:52:00,84.4,75.2,30.02,ESE,103,8.0,11.0,74,0.00,,FEW,0.08,798.00,VWS V14.01,2013-04-18 14:52:00,
2013-04-18 10:53:00,84.2,74.2,30.02,SE,143,6.0,7.0,72,0.00,,FEW,0.08,795.00,VWS V14.01,2013-04-18 14:53:00,
2013-04-18 10:54:00,84.1,74.1,30.02,SE,136,7.0,7.0,72,0.00,,FEW,0.08,795.00,VWS V14.01,2013-04-18 14:54:00,
2013-04-18 10:57:00,83.8,75.0,30.02,SE,131,10.0,11.0,75,0.00,,FEW,0.08,803.00,VWS V14.01,2013-04-18 14:57:00,
2013-04-18 10:58:00,83.9,75.1,30.02,ESE,122,2.0,11.0,75,0.00,,FEW,0.08,705.00,VWS V14.01,2013-04-18 14:58:00,
2013-04-18 10:59:00,83.9,74.7,30.02,ENE,63,4.0,11.0,74,0.00,,FEW,0.08,705.00,VWS V14.01,2013-04-18 14:59:00,
2013-04-18 11:00:00,84.0,75.2,30.02,ESE,111,1.0,11.0,75,0.00,,FEW,0.08,705.00,VWS V14.01,2013-04-18 15:00:00,
2013-04-18 11:02:00,84.4,75.2,30.02,SE,126,3.0,3.0,74,0.00,,FEW,0.08,823.00,VWS V14.01,2013-04-18 15:02:00,
2013-04-18 11:04:00,84.7,75.5,30.02,SSE,165,4.0,4.0,74,0.00,,FEW,0.08,796.00,VWS V14.01,2013-04-18 15:04:00,
2013-04-18 11:05:00,84.9,75.7,30.02,ESE,119,4.0,10.0,74,0.00,,FEW,0.08,793.00,VWS V14.01,2013-04-18 15:05:00,
2013-04-18 11:07:00,84.7,74.7,30.02,East,94,6.0,11.0,72,0.00,,FEW,0.08,805.00,VWS V14.01,2013-04-18 15:07:00,
2013-04-18 11:09:00,84.6,75.0,30.02,ENE,75,1.0,11.0,73,0.00,,FEW,0.08,773.00,VWS V14.01,2013-04-18 15:09:00,
2013-04-18 11:10:00,84.6,75.0,30.02,ESE,105,11.0,11.0,73,0.00,,FEW,0.08,819.00,VWS V14.01,2013-04-18 15:10:00,
2013-04-18 11:13:00,84.3,74.7,30.02,ESE,103,3.0,6.0,73,0.00,,FEW,0.08,879.00,VWS V14.01,2013-04-18 15:13:00,
2013-04-18 11:14:00,84.4,74.8,30.02,SE,125,2.0,8.0,73,0.00,,FEW,0.08,896.00,VWS V14.01,2013-04-18 15:14:00,
2013-04-18 11:15:00,84.3,74.7,30.02,ENE,70,4.0,9.0,73,0.00,,FEW,0.08,877.00,VWS V14.01,2013-04-18 15:15:00,
2013-04-18 11:16:00,84.4,74.8,30.02,SE,135,2.0,9.0,73,0.00,,FEW,0.08,886.00,VWS V14.01,2013-04-18 15:16:00,
2013-04-18 11:18:00,84.3,74.3,30.02,East,97,8.0,12.0,72,0.00,,FEW,0.08,838.00,VWS V14.01,2013-04-18 15:18:00,
2013-04-18 11:19:00,84.2,74.2,30.02,NNE,32,5.0,12.0,72,0.00,,FEW,0.08,849.00,VWS V14.01,2013-04-18 15:19:00,
2013-04-18 11:20:00,84.1,74.5,30.02,ENE,75,3.0,12.0,73,0.00,,FEW,0.08,849.00,VWS V14.01,2013-04-18 15:20:00,
2013-04-18 11:21:00,84.2,75.0,30.02,East,83,6.0,12.0,74,0.00,,FEW,0.08,853.00,VWS V14.01,2013-04-18 15:21:00,
2013-04-18 11:23:00,84.6,75.0,30.02,ESE,113,4.0,5.0,73,0.00,,FEW,0.08,838.00,VWS V14.01,2013-04-18 15:23:00,
2013-04-18 11:24:00,84.7,75.1,30.02,ESE,116,5.0,6.0,73,0.00,,FEW,0.08,895.00,VWS V14.01,2013-04-18 15:24:00,
2013-04-18 11:25:00,84.7,75.1,30.02,SE,132,5.0,8.0,73,0.00,,FEW,0.08,895.00,VWS V14.01,2013-04-18 15:25:00,
2013-04-18 11:26:00,84.7,74.7,30.02,SE,130,5.0,9.0,72,0.00,,FEW,0.08,895.00,VWS V14.01,2013-04-18 15:26:00,
2013-04-18 11:28:00,84.2,74.6,30.02,ESE,110,1.0,11.0,73,0.00,,FEW,0.08,935.00,VWS V14.01,2013-04-18 15:28:00,
2013-04-18 11:29:00,84.1,74.5,30.02,SE,126,3.0,11.0,73,0.00,,FEW,0.08,958.00,VWS V14.01,2013-04-18 15:29:00,
2013-04-18 11:30:00,84.2,74.6,30.02,ESE,119,8.0,11.0,73,0.00,,FEW,0.08,988.00,VWS V14.01,2013-04-18 15:30:00,
2013-04-18 11:31:00,84.3,74.7,30.02,ESE,118,3.0,12.0,73,0.00,,FEW,0.08,988.00,VWS V14.01,2013-04-18 15:31:00,
2013-04-18 11:33:00,84.7,75.1,30.02,ESE,116,4.0,7.0,73,0.00,,FEW,0.08,954.00,VWS V14.01,2013-04-18 15:33:00,
2013-04-18 11:34:00,84.9,74.9,30.02,SE,142,6.0,7.0,72,0.00,,FEW,0.08,939.00,VWS V14.01,2013-04-18 15:34:00,
2013-04-18 11:35:00,85.0,75.4,30.02,ESE,117,4.0,7.0,73,0.00,,FEW,0.08,939.00,VWS V14.01,2013-04-18 15:35:00,
2013-04-18 11:36:00,85.3,75.2,30.02,SE,143,7.0,9.0,72,0.00,,FEW,0.08,919.00,VWS V14.01,2013-04-18 15:36:00,
2013-04-18 11:38:00,85.1,74.6,30.02,NE,49,5.0,9.0,71,0.00,,FEW,0.08,863.00,VWS V14.01,2013-04-18 15:38:00,
2013-04-18 11:39:00,85.2,75.6,30.02,NNE,17,7.0,9.0,73,0.00,,FEW,0.08,868.00,VWS V14.01,2013-04-18 15:39:00,
2013-04-18 11:40:00,85.2,75.6,30.02,ESE,123,4.0,9.0,73,0.00,,FEW,0.08,868.00,VWS V14.01,2013-04-18 15:40:00,
2013-04-18 11:41:00,85.3,75.7,30.02,SSE,157,7.0,9.0,73,0.00,,FEW,0.08,868.00,VWS V14.01,2013-04-18 15:41:00,
2013-04-18 11:42:00,85.2,75.2,30.02,SE,126,4.0,10.0,72,0.00,,FEW,0.08,870.00,VWS V14.01,2013-04-18 15:42:00,
2013-04-18 11:44:00,85.1,75.1,30.02,ESE,111,5.0,8.0,72,0.00,,FEW,0.08,863.00,VWS V14.01,2013-04-18 15:44:00,
2013-04-18 11:45:00,84.9,74.9,30.02,ESE,117,4.0,10.0,72,0.00,,FEW,0.08,863.00,VWS V14.01,2013-04-18 15:45:00,
2013-04-18 11:46:00,84.8,74.8,30.02,ESE,115,1.0,10.0,72,0.00,,FEW,0.08,863.00,VWS V14.01,2013-04-18 15:46:00,
2013-04-18 11:47:00,84.8,74.8,30.01,SE,128,9.0,12.0,72,0.00,,FEW,0.08,879.00,VWS V14.01,2013-04-18 15:47:00,
2013-04-18 11:49:00,84.8,75.2,30.01,East,89,8.0,12.0,73,0.00,,FEW,0.08,872.00,VWS V14.01,2013-04-18 15:49:00,
2013-04-18 11:50:00,84.8,75.6,30.01,NE,44,2.0,12.0,74,0.00,,FEW,0.08,872.00,VWS V14.01,2013-04-18 15:50:00,
2013-04-18 11:52:00,85.1,75.5,30.01,ESE,123,10.0,12.0,73,0.00,,FEW,0.08,879.00,VWS V14.01,2013-04-18 15:52:00,
2013-04-18 11:54:00,85.1,75.5,30.01,SE,129,8.0,11.0,73,0.00,,FEW,0.08,879.00,VWS V14.01,2013-04-18 15:54:00,
2013-04-18 11:55:00,85.0,75.4,30.01,SSE,157,8.0,12.0,73,0.00,,FEW,0.08,888.00,VWS V14.01,2013-04-18 15:55:00,
2013-04-18 11:56:00,85.0,75.4,30.01,ESE,113,7.0,12.0,73,0.00,,FEW,0.08,888.00,VWS V14.01,2013-04-18 15:56:00,
2013-04-18 11:57:00,85.0,75.8,30.01,East,92,7.0,12.0,74,0.00,,FEW,0.08,888.00,VWS V14.01,2013-04-18 15:57:00,
2013-04-18 11:59:00,85.0,75.4,30.01,SE,125,5.0,12.0,73,0.00,,FEW,0.08,889.00,VWS V14.01,2013-04-18 15:59:00,
2013-04-18 12:00:00,85.0,75.8,30.01,SSE,148,8.0,12.0,74,0.00,,FEW,0.08,889.00,VWS V14.01,2013-04-18 16:00:00,
2013-04-18 12:01:00,85.0,75.4,30.01,SSE,148,4.0,12.0,73,0.00,,FEW,0.08,889.00,VWS V14.01,2013-04-18 16:01:00,
2013-04-18 12:02:00,85.1,75.9,30.01,ESE,119,7.0,12.0,74,0.00,,FEW,0.08,898.00,VWS V14.01,2013-04-18 16:02:00,
2013-04-18 12:04:00,85.1,75.5,30.01,ESE,118,1.0,12.0,73,0.00,,FEW,0.08,898.00,VWS V14.01,2013-04-18 16:04:00,
2013-04-18 12:05:00,85.2,75.2,30.01,SE,132,6.0,14.0,72,0.00,,FEW,0.08,905.00,VWS V14.01,2013-04-18 16:05:00,
2013-04-18 12:06:00,85.2,75.2,30.01,SE,144,5.0,14.0,72,0.00,,FEW,0.08,912.00,VWS V14.01,2013-04-18 16:06:00,
2013-04-18 12:07:00,85.1,75.1,30.01,East,87,7.0,14.0,72,0.00,,FEW,0.08,919.00,VWS V14.01,2013-04-18 16:07:00,
2013-04-18 12:09:00,85.2,75.6,30.01,ESE,105,4.0,14.0,73,0.00,,FEW,0.08,919.00,VWS V14.01,2013-04-18 16:09:00,
2013-04-18 12:10:00,85.2,76.0,30.01,NE,44,3.0,14.0,74,0.00,,FEW,0.08,962.00,VWS V14.01,2013-04-18 16:10:00,
2013-04-18 12:12:00,85.4,76.2,30.01,ESE,111,7.0,14.0,74,0.00,,FEW,0.08,962.00,VWS V14.01,2013-04-18 16:12:00,
2013-04-18 12:15:00,85.5,75.9,30.01,SSE,149,7.0,10.0,73,0.00,,FEW,0.08,976.00,VWS V14.01,2013-04-18 16:15:00,
2013-04-18 12:16:00,85.6,76.0,30.01,SE,128,6.0,12.0,73,0.00,,FEW,0.08,974.00,VWS V14.01,2013-04-18 16:16:00,
2013-04-18 12:17:00,85.6,75.5,30.00,SSE,161,8.0,12.0,72,0.00,,FEW,0.08,974.00,VWS V14.01,2013-04-18 16:17:00,
2013-04-18 12:18:00,85.6,75.5,30.00,SE,126,6.0,12.0,72,0.00,,FEW,0.08,974.00,VWS V14.01,2013-04-18 16:18:00,
2013-04-18 12:20:00,85.7,76.1,30.00,SE,132,6.0,12.0,73,0.00,,FEW,0.08,935.00,VWS V14.01,2013-04-18 16:20:00,
2013-04-18 12:21:00,85.8,76.2,30.00,East,96,2.0,12.0,73,0.00,,FEW,0.08,759.00,VWS V14.01,2013-04-18 16:21:00,
2013-04-18 12:23:00,85.9,76.7,30.00,SSE,150,3.0,6.0,74,0.00,,FEW,0.08,853.00,VWS V14.01,2013-04-18 16:23:00,
2013-04-18 12:25:00,85.9,75.4,30.00,SSE,147,9.0,13.0,71,0.00,,FEW,0.08,933.00,VWS V14.01,2013-04-18 16:25:00,
2013-04-18 12:26:00,85.8,75.3,30.00,East,98,1.0,13.0,71,0.00,,FEW,0.08,974.00,VWS V14.01,2013-04-18 16:26:00,
2013-04-18 12:28:00,85.9,75.8,30.00,SE,127,3.0,13.0,72,0.00,,FEW,0.08,896.00,VWS V14.01,2013-04-18 16:28:00,
2013-04-18 12:30:00,85.9,75.4,30.00,ESE,119,9.0,13.0,71,0.00,,FEW,0.08,777.00,VWS V14.01,2013-04-18 16:30:00,
2013-04-18 12:31:00,85.7,74.8,30.00,East,88,5.0,13.0,70,0.00,,FEW,0.08,756.00,VWS V14.01,2013-04-18 16:31:00,
2013-04-18 12:33:00,85.5,74.6,30.00,SSE,155,6.0,11.0,70,0.00,,FEW,0.08,717.00,VWS V14.01,2013-04-18 16:33:00,
2013-04-18 12:35:00,85.5,75.4,30.00,SSE,148,10.0,11.0,72,0.00,,FEW,0.08,1032.00,VWS V14.01,2013-04-18 16:35:00,
2013-04-18 12:37:00,85.6,75.5,30.00,ESE,103,3.0,12.0,72,0.00,,FEW,0.08,1032.00,VWS V14.01,2013-04-18 16:37:00,
2013-04-18 12:38:00,85.7,75.6,30.00,SE,126,4.0,12.0,72,0.00,,FEW,0.08,737.00,VWS V14.01,2013-04-18 16:38:00,
2013-04-18 12:40:00,85.7,75.6,30.00,ESE,103,5.0,12.0,72,0.00,,FEW,0.08,949.00,VWS V14.01,2013-04-18 16:40:00,
2013-04-18 12:42:00,85.6,75.5,30.00,NE,52,3.0,12.0,72,0.00,,FEW,0.08,870.00,VWS V14.01,2013-04-18 16:42:00,
2013-04-18 12:43:00,85.7,75.6,30.00,SE,134,4.0,9.0,72,0.00,,FEW,0.08,846.00,VWS V14.01,2013-04-18 16:43:00,
2013-04-18 12:44:00,85.8,75.7,30.00,SE,130,12.0,12.0,72,0.00,,FEW,0.08,846.00,VWS V14.01,2013-04-18 16:44:00,
2013-04-18 12:45:00,85.8,75.3,30.00,East,97,7.0,13.0,71,0.00,,FEW,0.08,893.00,VWS V14.01,2013-04-18 16:45:00,
2013-04-18 12:47:00,85.7,75.6,30.00,East,84,7.0,13.0,72,0.00,,FEW,0.08,853.00,VWS V14.01,2013-04-18 16:47:00,
2013-04-18 12:49:00,85.7,75.6,30.00,East,79,3.0,13.0,72,0.00,,FEW,0.08,791.00,VWS V14.01,2013-04-18 16:49:00,
2013-04-18 12:50:00,85.7,75.6,30.00,East,89,8.0,13.0,72,0.00,,FEW,0.08,791.00,VWS V14.01,2013-04-18 16:50:00,
2013-04-18 12:52:00,85.8,76.2,30.00,ESE,117,3.0,13.0,73,0.00,,FEW,0.08,668.00,VWS V14.01,2013-04-18 16:52:00,
2013-04-18 12:54:00,85.9,75.8,30.00,East,86,7.0,9.0,72,0.00,,FEW,0.08,726.00,VWS V14.01,2013-04-18 16:54:00,
2013-04-18 12:55:00,85.9,75.4,30.00,SE,128,5.0,9.0,71,0.00,,FEW,0.08,895.00,VWS V14.01,2013-04-18 16:55:00,
2013-04-18 12:57:00,85.6,74.7,30.00,SE,128,3.0,13.0,70,0.00,,FEW,0.08,707.00,VWS V14.01,2013-04-18 16:57:00,
2013-04-18 12:59:00,85.4,75.3,30.00,SE,141,9.0,13.0,72,0.00,,FEW,0.08,707.00,VWS V14.01,2013-04-18 16:59:00,
2013-04-18 13:00:00,85.4,75.8,30.00,SE,142,6.0,13.0,73,0.00,,FEW,0.08,707.00,VWS V14.01,2013-04-18 17:00:00,
2013-04-18 13:03:00,85.6,75.5,29.99,ENE,74,8.0,10.0,72,0.00,,FEW,0.08,1020.00,VWS V14.01,2013-04-18 17:03:00,
2013-04-18 13:04:00,85.5,75.0,29.99,ESE,107,11.0,11.0,71,0.00,,FEW,0.08,928.00,VWS V14.01,2013-04-18 17:04:00,
2013-04-18 13:05:00,85.5,75.0,29.99,South,173,10.0,11.0,71,0.00,,FEW,0.08,928.00,VWS V14.01,2013-04-18 17:05:00,
2013-04-18 13:08:00,85.2,74.7,29.99,SE,140,5.0,16.0,71,0.00,,FEW,0.08,972.00,VWS V14.01,2013-04-18 17:08:00,
2013-04-18 13:10:00,85.2,75.6,29.99,East,93,2.0,16.0,73,0.00,,FEW,0.08,842.00,VWS V14.01,2013-04-18 17:10:00,
2013-04-18 13:13:00,85.7,76.1,29.99,ENE,68,5.0,10.0,73,0.00,,FEW,0.08,842.00,VWS V14.01,2013-04-18 17:13:00,
2013-04-18 13:15:00,85.8,75.7,29.99,SSE,163,6.0,10.0,72,0.00,,FEW,0.08,926.00,VWS V14.01,2013-04-18 17:15:00,
2013-04-18 13:19:00,85.8,75.7,29.99,East,96,7.0,10.0,72,0.00,,FEW,0.08,796.00,VWS V14.01,2013-04-18 17:19:00,
2013-04-18 13:20:00,85.8,75.7,29.99,SE,132,6.0,13.0,72,0.00,,FEW,0.08,824.00,VWS V14.01,2013-04-18 17:20:00,
2013-04-18 13:21:00,85.7,75.6,29.99,ESE,116,4.0,13.0,72,0.00,,FEW,0.08,898.00,VWS V14.01,2013-04-18 17:21:00,
2013-04-18 13:24:00,86.2,76.1,29.99,East,90,7.0,14.0,72,0.00,,FEW,0.08,1016.00,VWS V14.01,2013-04-18 17:24:00,
2013-04-18 13:25:00,86.1,76.0,29.99,SSE,152,8.0,14.0,72,0.00,,FEW,0.08,1016.00,VWS V14.01,2013-04-18 17:25:00,
2013-04-18 13:26:00,86.1,76.0,29.99,SE,138,5.0,14.0,72,0.00,,FEW,0.08,1005.00,VWS V14.01,2013-04-18 17:26:00,
2013-04-18 13:29:00,86.1,76.0,29.99,East,97,6.0,14.0,72,0.00,,FEW,0.08,984.00,VWS V14.01,2013-04-18 17:29:00,
2013-04-18 13:30:00,86.0,75.5,29.99,ESE,109,5.0,14.0,71,0.00,,FEW,0.08,977.00,VWS V14.01,2013-04-18 17:30:00,
2013-04-18 13:31:00,86.1,75.6,29.99,SE,132,4.0,14.0,71,0.00,,FEW,0.08,977.00,VWS V14.01,2013-04-18 17:31:00,
2013-04-18 13:34:00,86.1,75.6,29.98,East,88,6.0,12.0,71,0.00,,FEW,0.08,969.00,VWS V14.01,2013-04-18 17:34:00,
2013-04-18 13:35:00,86.1,75.6,29.98,ESE,120,5.0,12.0,71,0.00,,FEW,0.08,988.00,VWS V14.01,2013-04-18 17:35:00,
2013-04-18 13:36:00,86.1,75.6,29.98,SE,128,8.0,12.0,71,0.00,,FEW,0.08,988.00,VWS V14.01,2013-04-18 17:36:00,
2013-04-18 13:40:00,86.2,75.3,29.98,SE,142,3.0,12.0,70,0.00,,FEW,0.08,1009.00,VWS V14.01,2013-04-18 17:40:00,
2013-04-18 13:41:00,86.2,75.7,29.98,East,89,2.0,12.0,71,0.00,,FEW,0.08,1009.00,VWS V14.01,2013-04-18 17:41:00,
2013-04-18 13:42:00,86.4,75.9,29.98,ESE,103,5.0,12.0,71,0.00,,FEW,0.08,932.00,VWS V14.01,2013-04-18 17:42:00,
2013-04-18 13:45:00,86.3,75.4,29.98,SSE,154,3.0,13.0,70,0.00,,FEW,0.08,956.00,VWS V14.01,2013-04-18 17:45:00,
2013-04-18 13:46:00,86.3,76.2,29.98,ESE,122,1.0,13.0,72,0.00,,FEW,0.08,939.00,VWS V14.01,2013-04-18 17:46:00,
2013-04-18 13:47:00,86.3,76.2,29.98,ESE,114,1.0,13.0,72,0.00,,FEW,0.08,939.00,VWS V14.01,2013-04-18 17:47:00,
2013-04-18 13:50:00,86.4,75.5,29.98,SE,140,5.0,13.0,70,0.00,,FEW,0.08,858.00,VWS V14.01,2013-04-18 17:50:00,
2013-04-18 13:51:00,86.3,75.4,29.98,East,98,2.0,15.0,70,0.00,,FEW,0.08,888.00,VWS V14.01,2013-04-18 17:51:00,
2013-04-18 13:52:00,86.3,75.8,29.98,SE,143,13.0,15.0,71,0.00,,FEW,0.08,928.00,VWS V14.01,2013-04-18 17:52:00,
2013-04-18 13:53:00,86.2,75.7,29.98,SE,132,14.0,14.0,71,0.00,,FEW,0.08,928.00,VWS V14.01,2013-04-18 17:53:00,
2013-04-18 13:55:00,85.8,75.3,29.98,SE,146,8.0,14.0,71,0.00,,FEW,0.08,942.00,VWS V14.01,2013-04-18 17:55:00,
2013-04-18 13:56:00,85.7,75.2,29.98,ESE,121,3.0,14.0,71,0.00,,FEW,0.08,942.00,VWS V14.01,2013-04-18 17:56:00,
2013-04-18 13:57:00,85.8,75.7,29.98,SE,136,6.0,14.0,72,0.00,,FEW,0.08,956.00,VWS V14.01,2013-04-18 17:57:00,
2013-04-18 13:58:00,85.9,76.2,29.98,ESE,104,5.0,14.0,73,0.00,,FEW,0.08,956.00,VWS V14.01,2013-04-18 17:58:00,
2013-04-18 14:01:00,86.0,75.5,29.98,ESE,102,5.0,14.0,71,0.00,,FEW,0.08,960.00,VWS V14.01,2013-04-18 18:01:00,
2013-04-18 14:02:00,86.0,75.9,29.98,East,94,1.0,14.0,72,0.00,,FEW,0.08,963.00,VWS V14.01,2013-04-18 18:02:00,
2013-04-18 14:03:00,86.0,75.9,29.98,East,92,7.0,7.0,72,0.00,,FEW,0.08,944.00,VWS V14.01,2013-04-18 18:03:00,
2013-04-18 14:06:00,86.2,75.7,29.98,ESE,109,3.0,11.0,71,0.00,,FEW,0.08,956.00,VWS V14.01,2013-04-18 18:06:00,
2013-04-18 14:07:00,86.3,76.2,29.98,East,101,6.0,11.0,72,0.00,,FEW,0.08,979.00,VWS V14.01,2013-04-18 18:07:00,
2013-04-18 14:08:00,86.4,76.3,29.98,East,94,5.0,13.0,72,0.00,,FEW,0.08,963.00,VWS V14.01,2013-04-18 18:08:00,
2013-04-18 14:11:00,86.3,76.2,29.98,SSE,161,7.0,13.0,72,0.00,,FEW,0.08,956.00,VWS V14.01,2013-04-18 18:11:00,
2013-04-18 14:12:00,86.4,76.3,29.98,East,86,3.0,13.0,72,0.00,,FEW,0.08,956.00,VWS V14.01,2013-04-18 18:12:00,
2013-04-18 14:13:00,86.5,76.4,29.98,SE,126,6.0,7.0,72,0.00,,FEW,0.08,956.00,VWS V14.01,2013-04-18 18:13:00,
2013-04-18 14:16:00,86.5,76.0,29.98,SE,137,6.0,12.0,71,0.00,,FEW,0.08,1011.00,VWS V14.01,2013-04-18 18:16:00,
2013-04-18 14:17:00,86.5,76.0,29.97,SE,146,6.0,12.0,71,0.00,,FEW,0.08,1011.00,VWS V14.01,2013-04-18 18:17:00,
2013-04-18 14:18:00,86.4,76.3,29.97,ENE,72,8.0,12.0,72,0.00,,FEW,0.08,1011.00,VWS V14.01,2013-04-18 18:18:00,
2013-04-18 14:21:00,86.2,75.7,29.97,ESE,103,2.0,12.0,71,0.00,,FEW,0.08,940.00,VWS V14.01,2013-04-18 18:21:00,
2013-04-18 14:22:00,86.4,75.9,29.97,ESE,121,8.0,12.0,71,0.00,,FEW,0.08,942.00,VWS V14.01,2013-04-18 18:22:00,
2013-04-18 14:23:00,86.5,76.0,29.97,SSE,155,10.0,10.0,71,0.00,,FEW,0.08,942.00,VWS V14.01,2013-04-18 18:23:00,
2013-04-18 14:27:00,86.0,74.7,29.97,SE,127,7.0,14.0,69,0.00,,FEW,0.08,932.00,VWS V14.01,2013-04-18 18:27:00,
2013-04-18 14:28:00,85.9,75.0,29.97,SE,145,8.0,14.0,70,0.00,,FEW,0.08,937.00,VWS V14.01,2013-04-18 18:28:00,
2013-04-18 14:32:00,85.7,74.8,29.97,ESE,123,11.0,16.0,70,0.00,,FEW,0.08,937.00,VWS V14.01,2013-04-18 18:32:00,
2013-04-18 14:33:00,85.6,74.7,29.97,SE,146,10.0,10.0,70,0.00,,FEW,0.08,958.00,VWS V14.01,2013-04-18 18:33:00,
2013-04-18 14:37:00,86.1,75.6,29.97,SE,125,2.0,13.0,71,0.00,,FEW,0.08,939.00,VWS V14.01,2013-04-18 18:37:00,
2013-04-18 14:38:00,86.2,75.7,29.97,East,88,3.0,13.0,71,0.00,,FEW,0.08,939.00,VWS V14.01,2013-04-18 18:38:00,
2013-04-18 14:39:00,86.4,75.9,29.97,NE,43,4.0,13.0,71,0.00,,FEW,0.08,928.00,VWS V14.01,2013-04-18 18:39:00,
2013-04-18 14:42:00,86.2,74.8,29.97,SSE,147,14.0,14.0,69,0.00,,FEW,0.08,912.00,VWS V14.01,2013-04-18 18:42:00,
2013-04-18 14:43:00,86.2,74.8,29.97,SE,129,9.0,14.0,69,0.00,,FEW,0.08,912.00,VWS V14.01,2013-04-18 18:43:00,
2013-04-18 14:44:00,86.0,75.1,29.97,East,100,11.0,14.0,70,0.00,,FEW,0.08,904.00,VWS V14.01,2013-04-18 18:44:00,
2013-04-18 14:47:00,86.0,75.5,29.97,East,83,5.0,14.0,71,0.00,,FEW,0.08,826.00,VWS V14.01,2013-04-18 18:47:00,
2013-04-18 14:48:00,86.0,75.5,29.97,SSE,155,10.0,14.0,71,0.00,,FEW,0.08,793.00,VWS V14.01,2013-04-18 18:48:00,
2013-04-18 14:49:00,86.0,75.5,29.97,SE,132,14.0,15.0,71,0.00,,FEW,0.08,705.00,VWS V14.01,2013-04-18 18:49:00,
2013-04-18 14:52:00,85.9,75.8,29.97,East,101,7.0,9.0,72,0.00,,FEW,0.08,835.00,VWS V14.01,2013-04-18 18:52:00,
2013-04-18 14:53:00,85.9,75.8,29.97,ESE,111,2.0,9.0,72,0.00,,FEW,0.08,835.00,VWS V14.01,2013-04-18 18:53:00,
2013-04-18 14:54:00,85.9,75.4,29.97,SE,143,4.0,9.0,71,0.00,,FEW,0.08,896.00,VWS V14.01,2013-04-18 18:54:00,
2013-04-18 14:58:00,85.8,75.3,29.97,ENE,62,7.0,14.0,71,0.00,,FEW,0.08,1021.00,VWS V14.01,2013-04-18 18:58:00,
2013-04-18 14:59:00,85.9,75.8,29.97,SE,132,5.0,14.0,72,0.00,,FEW,0.08,1021.00,VWS V14.01,2013-04-18 18:59:00,
2013-04-18 15:03:00,86.3,76.2,29.97,East,96,5.0,8.0,72,0.00,,FEW,0.08,735.00,VWS V14.01,2013-04-18 19:03:00,
2013-04-18 15:04:00,86.4,76.3,29.97,East,94,2.0,8.0,72,0.00,,FEW,0.08,810.00,VWS V14.01,2013-04-18 19:04:00,
2013-04-18 15:08:00,86.5,76.0,29.97,ENE,67,4.0,8.0,71,0.00,,FEW,0.08,780.00,VWS V14.01,2013-04-18 19:08:00,
2013-04-18 15:09:00,86.5,76.0,29.97,SSE,165,8.0,10.0,71,0.00,,FEW,0.08,780.00,VWS V14.01,2013-04-18 19:09:00,
2013-04-18 15:13:00,85.9,75.4,29.97,East,88,2.0,3.0,71,0.00,,FEW,0.08,615.00,VWS V14.01,2013-04-18 19:13:00,
2013-04-18 15:14:00,85.9,76.2,29.97,ENE,78,3.0,3.0,73,0.00,,FEW,0.08,631.00,VWS V14.01,2013-04-18 19:14:00,
2013-04-18 15:15:00,85.9,75.8,29.97,SE,124,3.0,8.0,72,0.00,,FEW,0.08,631.00,VWS V14.01,2013-04-18 19:15:00,
2013-04-18 15:18:00,86.3,76.2,29.97,ESE,123,7.0,9.0,72,0.00,,FEW,0.08,953.00,VWS V14.01,2013-04-18 19:18:00,
2013-04-18 15:19:00,86.2,76.1,29.97,ESE,121,1.0,9.0,72,0.00,,FEW,0.08,947.00,VWS V14.01,2013-04-18 19:19:00,
2013-04-18 15:20:00,86.3,76.6,29.97,ESE,122,2.0,9.0,73,0.00,,FEW,0.08,947.00,VWS V14.01,2013-04-18 19:20:00,
2013-04-18 15:23:00,86.4,76.7,29.97,ESE,114,5.0,5.0,73,0.00,,FEW,0.08,962.00,VWS V14.01,2013-04-18 19:23:00,
2013-04-18 15:24:00,86.4,76.3,29.97,SSE,154,8.0,8.0,72,0.00,,FEW,0.08,962.00,VWS V14.01,2013-04-18 19:24:00,
2013-04-18 15:25:00,86.3,76.2,29.97,East,86,10.0,11.0,72,0.00,,FEW,0.08,962.00,VWS V14.01,2013-04-18 19:25:00,
2013-04-18 15:28:00,86.0,76.3,29.97,ESE,115,4.0,17.0,73,0.00,,FEW,0.08,983.00,VWS V14.01,2013-04-18 19:28:00,
2013-04-18 15:29:00,86.1,76.4,29.97,SE,140,5.0,17.0,73,0.00,,FEW,0.08,983.00,VWS V14.01,2013-04-18 19:29:00,
2013-04-18 15:30:00,86.1,76.0,29.97,SE,132,8.0,17.0,72,0.00,,FEW,0.08,983.00,VWS V14.01,2013-04-18 19:30:00,
2013-04-18 15:31:00,86.1,76.0,29.97,ESE,110,4.0,17.0,72,0.00,,FEW,0.08,872.00,VWS V14.01,2013-04-18 19:31:00,
2013-04-18 15:33:00,86.1,76.0,29.96,ESE,117,7.0,7.0,72,0.00,,FEW,0.08,916.00,VWS V14.01,2013-04-18 19:33:00,
2013-04-18 15:34:00,86.2,76.5,29.96,ENE,61,9.0,9.0,73,0.00,,FEW,0.08,916.00,VWS V14.01,2013-04-18 19:34:00,
2013-04-18 15:35:00,86.2,76.1,29.96,SSE,147,3.0,9.0,72,0.00,,FEW,0.08,916.00,VWS V14.01,2013-04-18 19:35:00,
2013-04-18 15:36:00,86.1,76.0,29.96,East,85,5.0,9.0,72,0.00,,FEW,0.08,916.00,VWS V14.01,2013-04-18 19:36:00,
2013-04-18 15:39:00,86.0,76.3,29.96,ESE,111,2.0,9.0,73,0.00,,FEW,0.08,826.00,VWS V14.01,2013-04-18 19:39:00,
2013-04-18 15:40:00,86.1,76.0,29.96,East,98,6.0,9.0,72,0.00,,FEW,0.08,838.00,VWS V14.01,2013-04-18 19:40:00,
2013-04-18 15:42:00,86.4,76.7,29.96,ENE,65,3.0,9.0,73,0.00,,FEW,0.08,854.00,VWS V14.01,2013-04-18 19:42:00,
2013-04-18 15:44:00,86.5,76.4,29.96,ESE,109,1.0,5.0,72,0.00,,FEW,0.08,854.00,VWS V14.01,2013-04-18 19:44:00,
2013-04-18 15:45:00,86.5,76.4,29.96,SSE,162,2.0,5.0,72,0.00,,FEW,0.08,810.00,VWS V14.01,2013-04-18 19:45:00,
2013-04-18 15:47:00,86.5,76.0,29.96,East,90,5.0,9.0,71,0.00,,FEW,0.08,872.00,VWS V14.01,2013-04-18 19:47:00,
2013-04-18 15:49:00,86.4,75.9,29.96,East,100,1.0,9.0,71,0.00,,FEW,0.08,780.00,VWS V14.01,2013-04-18 19:49:00,
2013-04-18 15:50:00,86.5,76.0,29.96,SE,127,5.0,9.0,71,0.00,,FEW,0.08,780.00,VWS V14.01,2013-04-18 19:50:00,
2013-04-18 15:52:00,86.3,75.4,29.96,ESE,110,3.0,9.0,70,0.00,,FEW,0.08,782.00,VWS V14.01,2013-04-18 19:52:00,
2013-04-18 15:54:00,86.1,75.6,29.96,ESE,115,8.0,11.0,71,0.00,,FEW,0.08,809.00,VWS V14.01,2013-04-18 19:54:00,
2013-04-18 15:55:00,86.1,75.6,29.96,SE,124,5.0,11.0,71,0.00,,FEW,0.08,809.00,VWS V14.01,2013-04-18 19:55:00,
2013-04-18 15:57:00,86.1,76.0,29.96,ESE,121,11.0,11.0,72,0.00,,FEW,0.08,826.00,VWS V14.01,2013-04-18 19:57:00,
2013-04-18 16:00:00,86.0,75.5,29.96,SE,130,7.0,11.0,71,0.00,,FEW,0.08,872.00,VWS V14.01,2013-04-18 20:00:00,
2013-04-18 16:02:00,85.9,75.8,29.96,SSE,150,8.0,13.0,72,0.00,,FEW,0.08,872.00,VWS V14.01,2013-04-18 20:02:00,
2013-04-18 16:05:00,85.6,75.5,29.96,East,95,6.0,15.0,72,0.00,,FEW,0.08,872.00,VWS V14.01,2013-04-18 20:05:00,
2013-04-18 16:06:00,85.4,75.3,29.96,SE,144,6.0,15.0,72,0.00,,FEW,0.08,872.00,VWS V14.01,2013-04-18 20:06:00,
2013-04-18 16:07:00,85.2,75.6,29.96,ESE,122,9.0,15.0,73,0.00,,FEW,0.08,156.00,VWS V14.01,2013-04-18 20:07:00,
2013-04-18 16:10:00,85.0,75.4,29.96,East,92,6.0,15.0,73,0.00,,FEW,0.08,745.00,VWS V14.01,2013-04-18 20:10:00,
2013-04-18 16:11:00,85.0,75.4,29.96,SE,134,8.0,15.0,73,0.00,,FEW,0.08,798.00,VWS V14.01,2013-04-18 20:11:00,
2013-04-18 16:12:00,84.9,75.3,29.96,SE,127,6.0,7.0,73,0.00,,FEW,0.08,798.00,VWS V14.01,2013-04-18 20:12:00,
2013-04-18 16:15:00,85.1,75.9,29.96,ESE,117,10.0,11.0,74,0.00,,FEW,0.08,814.00,VWS V14.01,2013-04-18 20:15:00,
2013-04-18 16:16:00,85.1,75.9,29.96,ESE,121,10.0,11.0,74,0.00,,FEW,0.08,784.00,VWS V14.01,2013-04-18 20:16:00,
2013-04-18 16:18:00,85.2,75.6,29.95,SE,141,6.0,11.0,73,0.00,,FEW,0.08,745.00,VWS V14.01,2013-04-18 20:18:00,
2013-04-18 16:20:00,85.2,75.6,29.95,East,89,3.0,11.0,73,0.00,,FEW,0.08,714.00,VWS V14.01,2013-04-18 20:20:00,
2013-04-18 16:21:00,85.1,75.5,29.95,East,87,2.0,11.0,73,0.00,,FEW,0.08,714.00,VWS V14.01,2013-04-18 20:21:00,
2013-04-18 16:23:00,85.3,75.7,29.95,South,171,2.0,2.0,73,0.00,,FEW,0.08,714.00,VWS V14.01,2013-04-18 20:23:00,
2013-04-18 16:25:00,85.7,76.1,29.95,SE,137,14.0,14.0,73,0.00,,FEW,0.08,649.00,VWS V14.01,2013-04-18 20:25:00,
2013-04-18 16:26:00,85.7,76.1,29.95,SE,142,7.0,14.0,73,0.00,,FEW,0.08,691.00,VWS V14.01,2013-04-18 20:26:00,
2013-04-18 16:28:00,85.7,76.1,29.95,ESE,111,7.0,14.0,73,0.00,,FEW,0.08,686.00,VWS V14.01,2013-04-18 20:28:00,
2013-04-18 16:30:00,85.9,76.2,29.95,ESE,114,4.0,14.0,73,0.00,,FEW,0.08,686.00,VWS V14.01,2013-04-18 20:30:00,
2013-04-18 16:31:00,85.9,76.2,29.95,East,87,2.0,14.0,73,0.00,,FEW,0.08,675.00,VWS V14.01,2013-04-18 20:31:00,
2013-04-18 16:33:00,85.8,76.2,29.96,SE,130,8.0,8.0,73,0.00,,FEW,0.08,694.00,VWS V14.01,2013-04-18 20:33:00,
2013-04-18 16:35:00,85.7,76.5,29.96,ESE,117,8.0,11.0,74,0.00,,FEW,0.08,717.00,VWS V14.01,2013-04-18 20:35:00,
2013-04-18 16:36:00,85.7,76.5,29.96,ESE,110,2.0,11.0,74,0.00,,FEW,0.08,717.00,VWS V14.01,2013-04-18 20:36:00,
2013-04-18 16:37:00,85.8,76.6,29.96,SE,130,5.0,11.0,74,0.00,,FEW,0.08,717.00,VWS V14.01,2013-04-18 20:37:00,
2013-04-18 16:38:00,85.7,76.1,29.96,ESE,119,10.0,11.0,73,0.00,,FEW,0.08,172.00,VWS V14.01,2013-04-18 20:38:00,
2013-04-18 16:40:00,85.4,76.2,29.96,ESE,112,5.0,11.0,74,0.00,,FEW,0.08,176.00,VWS V14.01,2013-04-18 20:40:00,
2013-04-18 16:42:00,85.3,76.5,29.96,East,90,11.0,11.0,75,0.00,,FEW,0.08,176.00,VWS V14.01,2013-04-18 20:42:00,
2013-04-18 16:43:00,85.3,76.5,29.96,ESE,108,2.0,3.0,75,0.00,,FEW,0.08,176.00,VWS V14.01,2013-04-18 20:43:00,
2013-04-18 16:46:00,85.4,76.6,29.96,NE,48,3.0,12.0,75,0.00,,FEW,0.08,684.00,VWS V14.01,2013-04-18 20:46:00,
2013-04-18 16:47:00,85.5,76.7,29.96,ESE,104,8.0,12.0,75,0.00,,FEW,0.08,652.00,VWS V14.01,2013-04-18 20:47:00,
2013-04-18 16:48:00,85.6,76.8,29.96,ESE,115,9.0,12.0,75,0.00,,FEW,0.08,636.00,VWS V14.01,2013-04-18 20:48:00,
2013-04-18 16:51:00,85.4,75.8,29.96,East,80,1.0,13.0,73,0.00,,FEW,0.08,568.00,VWS V14.01,2013-04-18 20:51:00,
2013-04-18 16:52:00,85.3,76.1,29.96,SE,134,9.0,13.0,74,0.00,,FEW,0.08,564.00,VWS V14.01,2013-04-18 20:52:00,
2013-04-18 16:53:00,85.1,75.5,29.96,SSE,164,7.0,11.0,73,0.00,,FEW,0.08,485.00,VWS V14.01,2013-04-18 20:53:00,
2013-04-18 16:56:00,85.0,75.4,29.96,SSE,158,8.0,14.0,73,0.00,,FEW,0.08,570.00,VWS V14.01,2013-04-18 20:56:00,
2013-04-18 16:57:00,85.0,75.0,29.96,SE,128,13.0,15.0,72,0.00,,FEW,0.08,552.00,VWS V14.01,2013-04-18 20:57:00,
2013-04-18 16:58:00,84.8,74.8,29.96,SE,139,11.0,15.0,72,0.00,,FEW,0.08,531.00,VWS V14.01,2013-04-18 20:58:00,
2013-04-18 17:01:00,84.6,75.0,29.96,SE,136,9.0,15.0,73,0.00,,FEW,0.08,454.00,VWS V14.01,2013-04-18 21:01:00,
2013-04-18 17:02:00,84.5,74.9,29.95,SE,138,9.0,15.0,73,0.00,,FEW,0.08,411.00,VWS V14.01,2013-04-18 21:02:00,
2013-04-18 17:03:00,84.5,74.9,29.95,ESE,113,1.0,10.0,73,0.00,,FEW,0.08,471.00,VWS V14.01,2013-04-18 21:03:00,
2013-04-18 17:06:00,84.6,75.4,29.95,East,101,2.0,10.0,74,0.00,,FEW,0.08,336.00,VWS V14.01,2013-04-18 21:06:00,
2013-04-18 17:07:00,84.6,75.8,29.95,ESE,123,8.0,10.0,75,0.00,,FEW,0.08,362.00,VWS V14.01,2013-04-18 21:07:00,
2013-04-18 17:08:00,84.6,75.4,29.95,SSE,165,5.0,10.0,74,0.00,,FEW,0.08,403.00,VWS V14.01,2013-04-18 21:08:00,
2013-04-18 17:11:00,84.6,75.4,29.95,ENE,71,2.0,10.0,74,0.00,,FEW,0.08,431.00,VWS V14.01,2013-04-18 21:11:00,
2013-04-18 17:12:00,84.6,75.4,29.95,NE,46,2.0,10.0,74,0.00,,FEW,0.08,403.00,VWS V14.01,2013-04-18 21:12:00,
2013-04-18 17:13:00,84.7,75.5,29.95,SSE,150,3.0,3.0,74,0.00,,FEW,0.08,420.00,VWS V14.01,2013-04-18 21:13:00,
2013-04-18 17:17:00,84.7,75.5,29.95,SE,145,7.0,11.0,74,0.00,,FEW,0.08,448.00,VWS V14.01,2013-04-18 21:17:00,
2013-04-18 17:18:00,84.6,75.4,29.95,ESE,103,13.0,13.0,74,0.00,,FEW,0.08,422.00,VWS V14.01,2013-04-18 21:18:00,
2013-04-18 17:22:00,84.4,75.6,29.95,East,94,9.0,13.0,75,0.00,,FEW,0.08,436.00,VWS V14.01,2013-04-18 21:22:00,
2013-04-18 17:23:00,84.4,75.6,29.95,SE,142,5.0,9.0,75,0.00,,FEW,0.08,436.00,VWS V14.01,2013-04-18 21:23:00,
2013-04-18 17:27:00,84.0,75.2,29.95,SE,134,6.0,13.0,75,0.00,,FEW,0.08,199.00,VWS V14.01,2013-04-18 21:27:00,
2013-04-18 17:28:00,84.0,75.2,29.95,SE,135,4.0,13.0,75,0.00,,FEW,0.08,199.00,VWS V14.01,2013-04-18 21:28:00,
2013-04-18 17:29:00,84.0,75.6,29.95,ESE,113,3.0,13.0,76,0.00,,FEW,0.08,199.00,VWS V14.01,2013-04-18 21:29:00,
2013-04-18 17:32:00,84.2,76.2,29.96,ESE,107,7.0,13.0,77,0.00,,FEW,0.08,225.00,VWS V14.01,2013-04-18 21:32:00,
2013-04-18 17:33:00,84.2,76.2,29.96,ESE,115,5.0,8.0,77,0.00,,FEW,0.08,221.00,VWS V14.01,2013-04-18 21:33:00,
2013-04-18 17:34:00,84.2,75.8,29.96,ESE,118,5.0,10.0,76,0.00,,FEW,0.08,315.00,VWS V14.01,2013-04-18 21:34:00,
2013-04-18 17:37:00,83.8,75.8,29.96,East,92,6.0,11.0,77,0.00,,FEW,0.08,378.00,VWS V14.01,2013-04-18 21:37:00,
2013-04-18 17:38:00,83.8,75.8,29.96,SE,134,4.0,11.0,77,0.00,,FEW,0.08,378.00,VWS V14.01,2013-04-18 21:38:00,
2013-04-18 17:39:00,83.8,75.8,29.96,ESE,115,10.0,11.0,77,0.00,,FEW,0.08,413.00,VWS V14.01,2013-04-18 21:39:00,
2013-04-18 17:42:00,83.6,75.2,29.96,ESE,111,7.0,8.0,76,0.00,,FEW,0.08,272.00,VWS V14.01,2013-04-18 21:42:00,
2013-04-18 17:43:00,83.6,75.2,29.96,ESE,111,7.0,8.0,76,0.00,,FEW,0.08,272.00,VWS V14.01,2013-04-18 21:43:00,
2013-04-18 17:44:00,83.6,74.8,29.96,SSE,161,7.0,8.0,75,0.00,,FEW,0.08,304.00,VWS V14.01,2013-04-18 21:44:00,
2013-04-18 17:48:00,83.3,74.6,29.95,SE,124,5.0,14.0,75,0.00,,FEW,0.08,399.00,VWS V14.01,2013-04-18 21:48:00,
2013-04-18 17:49:00,83.4,74.7,29.95,SSE,147,8.0,14.0,75,0.00,,FEW,0.08,369.00,VWS V14.01,2013-04-18 21:49:00,
2013-04-18 17:53:00,83.6,75.2,29.95,SE,136,5.0,5.0,76,0.00,,FEW,0.08,399.00,VWS V14.01,2013-04-18 21:53:00,
2013-04-18 17:54:00,83.7,75.3,29.95,SE,130,5.0,5.0,76,0.00,,FEW,0.08,399.00,VWS V14.01,2013-04-18 21:54:00,
2013-04-18 17:58:00,84.1,75.7,29.95,SE,139,8.0,11.0,76,0.00,,FEW,0.08,257.00,VWS V14.01,2013-04-18 21:58:00,
2013-04-18 17:59:00,84.1,75.3,29.95,East,84,2.0,11.0,75,0.00,,FEW,0.08,269.00,VWS V14.01,2013-04-18 21:59:00,
2013-04-18 18:03:00,83.8,75.0,29.95,ESE,107,3.0,11.0,75,0.00,,FEW,0.08,292.00,VWS V14.01,2013-04-18 22:03:00,
2013-04-18 18:04:00,83.8,75.0,29.95,East,84,9.0,11.0,75,0.00,,FEW,0.08,294.00,VWS V14.01,2013-04-18 22:04:00,
2013-04-18 18:08:00,83.7,75.3,29.95,ESE,118,9.0,11.0,76,0.00,,FEW,0.08,160.00,VWS V14.01,2013-04-18 22:08:00,
2013-04-18 18:09:00,83.6,74.8,29.95,East,93,9.0,11.0,75,0.00,,FEW,0.08,158.00,VWS V14.01,2013-04-18 22:09:00,
2013-04-18 18:13:00,83.1,74.8,29.95,ESE,115,3.0,8.0,76,0.00,,FEW,0.08,285.00,VWS V14.01,2013-04-18 22:13:00,
2013-04-18 18:14:00,83.1,74.8,29.95,SE,146,5.0,8.0,76,0.00,,FEW,0.08,285.00,VWS V14.01,2013-04-18 22:14:00,
2013-04-18 18:18:00,83.1,74.8,29.96,ESE,121,12.0,12.0,76,0.00,,FEW,0.08,176.00,VWS V14.01,2013-04-18 22:18:00,
2013-04-18 18:19:00,83.1,74.8,29.96,SE,132,3.0,12.0,76,0.00,,FEW,0.08,176.00,VWS V14.01,2013-04-18 22:19:00,
2013-04-18 18:24:00,82.8,74.5,29.96,East,90,2.0,11.0,76,0.00,,FEW,0.08,185.00,VWS V14.01,2013-04-18 22:24:00,
2013-04-18 18:25:00,82.7,74.4,29.96,SE,136,7.0,12.0,76,0.00,,FEW,0.08,186.00,VWS V14.01,2013-04-18 22:25:00,
2013-04-18 18:29:00,82.7,74.8,29.96,ESE,119,2.0,13.0,77,0.00,,FEW,0.08,343.00,VWS V14.01,2013-04-18 22:29:00,
2013-04-18 18:30:00,82.8,75.2,29.96,SE,143,4.0,13.0,78,0.00,,FEW,0.08,336.00,VWS V14.01,2013-04-18 22:30:00,
2013-04-18 18:34:00,83.0,75.1,29.95,South,171,6.0,10.0,77,0.00,,FEW,0.08,304.00,VWS V14.01,2013-04-18 22:34:00,
2013-04-18 18:35:00,83.0,75.1,29.95,SE,142,9.0,10.0,77,0.00,,FEW,0.08,304.00,VWS V14.01,2013-04-18 22:35:00,
2013-04-18 18:39:00,83.1,74.8,29.95,SE,132,5.0,14.0,76,0.00,,FEW,0.08,297.00,VWS V14.01,2013-04-18 22:39:00,
2013-04-18 18:40:00,83.1,74.8,29.95,ESE,105,4.0,14.0,76,0.00,,FEW,0.08,267.00,VWS V14.01,2013-04-18 22:40:00,
2013-04-18 18:44:00,83.1,74.8,29.95,ESE,115,8.0,12.0,76,0.00,,FEW,0.08,237.00,VWS V14.01,2013-04-18 22:44:00,
2013-04-18 18:45:00,83.0,74.7,29.95,ESE,121,13.0,13.0,76,0.00,,FEW,0.08,237.00,VWS V14.01,2013-04-18 22:45:00,
2013-04-18 18:46:00,82.9,74.2,29.95,ESE,102,9.0,13.0,75,0.00,,FEW,0.08,130.00,VWS V14.01,2013-04-18 22:46:00,
2013-04-18 18:49:00,82.7,74.0,29.95,SE,126,8.0,13.0,75,0.00,,FEW,0.08,148.00,VWS V14.01,2013-04-18 22:49:00,
2013-04-18 18:50:00,82.6,73.9,29.95,SE,128,7.0,13.0,75,0.00,,FEW,0.08,160.00,VWS V14.01,2013-04-18 22:50:00,
2013-04-18 18:51:00,82.6,74.3,29.95,SE,139,5.0,13.0,76,0.00,,FEW,0.08,160.00,VWS V14.01,2013-04-18 22:51:00,
2013-04-18 18:54:00,82.5,74.2,29.95,SE,127,9.0,13.0,76,0.00,,FEW,0.08,130.00,VWS V14.01,2013-04-18 22:54:00,
2013-04-18 18:55:00,82.4,73.7,29.95,ESE,113,7.0,13.0,75,0.00,,FEW,0.08,130.00,VWS V14.01,2013-04-18 22:55:00,
2013-04-18 18:56:00,82.3,74.0,29.95,SE,144,5.0,13.0,76,0.00,,FEW,0.08,134.00,VWS V14.01,2013-04-18 22:56:00,
2013-04-18 18:59:00,82.1,73.8,29.95,ESE,105,2.0,13.0,76,0.00,,FEW,0.08,151.00,VWS V14.01,2013-04-18 22:59:00,
2013-04-18 19:00:00,82.1,73.8,29.95,ESE,108,3.0,13.0,76,0.00,,FEW,0.08,151.00,VWS V14.01,2013-04-18 23:00:00,
2013-04-18 19:01:00,82.1,73.8,29.95,ESE,123,8.0,13.0,76,0.00,,FEW,0.08,148.00,VWS V14.01,2013-04-18 23:01:00,
2013-04-18 19:04:00,82.0,73.7,29.94,SE,144,3.0,11.0,76,0.00,,FEW,0.08,132.00,VWS V14.01,2013-04-18 23:04:00,
2013-04-18 19:05:00,82.0,73.7,29.94,ESE,121,10.0,11.0,76,0.00,,FEW,0.08,132.00,VWS V14.01,2013-04-18 23:05:00,
2013-04-18 19:06:00,82.0,73.7,29.94,SE,134,12.0,12.0,76,0.00,,FEW,0.08,130.00,VWS V14.01,2013-04-18 23:06:00,
2013-04-18 19:10:00,82.0,74.1,29.94,SSE,165,2.0,12.0,77,0.00,,FEW,0.08,120.00,VWS V14.01,2013-04-18 23:10:00,
2013-04-18 19:11:00,82.0,74.1,29.94,SE,143,6.0,12.0,77,0.00,,FEW,0.08,116.00,VWS V14.01,2013-04-18 23:11:00,
2013-04-18 19:15:00,81.9,74.0,29.94,ESE,117,3.0,11.0,77,0.00,,FEW,0.08,69.00,VWS V14.01,2013-04-18 23:15:00,
2013-04-18 19:16:00,81.9,74.0,29.94,ENE,75,3.0,11.0,77,0.00,,FEW,0.08,65.00,VWS V14.01,2013-04-18 23:16:00,
2013-04-18 19:20:00,81.9,74.0,29.94,NE,55,1.0,11.0,77,0.00,,FEW,0.08,56.00,VWS V14.01,2013-04-18 23:20:00,
2013-04-18 19:21:00,81.8,73.9,29.94,ESE,106,4.0,11.0,77,0.00,,FEW,0.08,56.00,VWS V14.01,2013-04-18 23:21:00,
2013-04-18 19:25:00,81.7,73.8,29.94,East,95,9.0,11.0,77,0.00,,FEW,0.08,46.00,VWS V14.01,2013-04-18 23:25:00,
2013-04-18 19:26:00,81.6,73.7,29.94,ESE,102,8.0,11.0,77,0.00,,FEW,0.08,42.00,VWS V14.01,2013-04-18 23:26:00,
2013-04-18 19:27:00,81.6,73.7,29.94,SE,128,3.0,11.0,77,0.00,,FEW,0.08,40.00,VWS V14.01,2013-04-18 23:27:00,
2013-04-18 19:30:00,81.5,74.0,29.94,ESE,123,2.0,11.0,78,0.00,,FEW,0.08,37.00,VWS V14.01,2013-04-18 23:30:00,
2013-04-18 19:31:00,81.5,74.0,29.94,ENE,65,2.0,11.0,78,0.00,,FEW,0.08,35.00,VWS V14.01,2013-04-18 23:31:00,
2013-04-18 19:32:00,81.6,74.1,29.94,East,92,2.0,11.0,78,0.00,,FEW,0.08,35.00,VWS V14.01,2013-04-18 23:32:00,
2013-04-18 19:35:00,81.4,73.5,29.94,ESE,120,5.0,9.0,77,0.00,,FEW,0.08,25.00,VWS V14.01,2013-04-18 23:35:00,
2013-04-18 19:36:00,81.4,73.5,29.94,ESE,120,7.0,9.0,77,0.00,,FEW,0.08,21.00,VWS V14.01,2013-04-18 23:36:00,
2013-04-18 19:37:00,81.4,73.5,29.94,ESE,119,5.0,9.0,77,0.00,,FEW,0.08,21.00,VWS V14.01,2013-04-18 23:37:00,
2013-04-18 19:41:00,81.2,73.3,29.94,SE,131,9.0,16.0,77,0.00,,FEW,0.08,16.00,VWS V14.01,2013-04-18 23:41:00,
2013-04-18 19:42:00,81.1,73.2,29.94,ESE,116,4.0,16.0,77,0.00,,FEW,0.08,14.00,VWS V14.01,2013-04-18 23:42:00,
2013-04-18 19:46:00,80.9,73.0,29.94,SE,131,8.0,12.0,77,0.00,,FEW,0.08,5.00,VWS V14.01,2013-04-18 23:46:00,
2013-04-18 19:47:00,80.9,73.4,29.94,ESE,105,5.0,13.0,78,0.00,,FEW,0.08,0.00,VWS V14.01,2013-04-18 23:47:00,
2013-04-18 19:51:00,80.9,73.8,29.94,SE,137,4.0,13.0,79,0.00,,FEW,0.08,0.00,VWS V14.01,2013-04-18 23:51:00,
2013-04-18 19:52:00,80.9,73.8,29.94,SSE,154,7.0,13.0,79,0.00,,FEW,0.08,0.00,VWS V14.01,2013-04-18 23:52:00,
2013-04-18 19:56:00,80.8,73.7,29.94,SE,135,6.0,17.0,79,0.00,,FEW,0.08,0.00,VWS V14.01,2013-04-18 23:56:00,
2013-04-18 19:57:00,80.7,73.6,29.94,SE,129,5.0,17.0,79,0.00,,FEW,0.08,0.00,VWS V14.01,2013-04-18 23:57:00,
2013-04-18 19:58:00,80.8,73.7,29.94,ESE,121,3.0,17.0,79,0.00,,FEW,0.08,0.00,VWS V14.01,2013-04-18 23:58:00,
2013-04-18 20:01:00,80.7,73.6,29.94,ESE,123,7.0,17.0,79,0.00,,FEW,0.08,0.00,VWS V14.01,2013-04-19 00:01:00,
2013-04-18 20:02:00,80.7,73.6,29.95,ESE,111,4.0,17.0,79,0.00,,FEW,0.08,0.00,VWS V14.01,2013-04-19 00:02:00,
2013-04-18 20:03:00,80.7,73.6,29.95,ESE,104,8.0,8.0,79,0.00,,FEW,0.08,0.00,VWS V14.01,2013-04-19 00:03:00,
2013-04-18 20:07:00,80.7,73.6,29.95,ENE,69,4.0,12.0,79,0.00,,FEW,0.08,0.00,VWS V14.01,2013-04-19 00:07:00,
2013-04-18 20:08:00,80.6,73.5,29.95,SSE,163,4.0,12.0,79,0.00,,FEW,0.08,0.00,VWS V14.01,2013-04-19 00:08:00,
2013-04-18 20:12:00,80.6,73.9,29.95,SSW,211,3.0,12.0,80,0.00,,FEW,0.08,0.00,VWS V14.01,2013-04-19 00:12:00,
2013-04-18 20:13:00,80.6,73.9,29.95,East,96,2.0,8.0,80,0.00,,FEW,0.08,0.00,VWS V14.01,2013-04-19 00:13:00,
2013-04-18 20:17:00,80.6,74.2,29.96,ESE,107,2.0,10.0,81,0.00,,FEW,0.08,0.00,VWS V14.01,2013-04-19 00:17:00,
2013-04-18 20:18:00,80.6,74.2,29.96,ESE,107,1.0,10.0,81,0.00,,FEW,0.08,0.00,VWS V14.01,2013-04-19 00:18:00,
2013-04-18 20:22:00,80.5,74.1,29.96,ESE,111,10.0,15.0,81,0.00,,FEW,0.08,0.00,VWS V14.01,2013-04-19 00:22:00,
2013-04-18 20:23:00,80.5,74.1,29.96,ESE,105,4.0,7.0,81,0.00,,FEW,0.08,0.00,VWS V14.01,2013-04-19 00:23:00,
2013-04-18 20:24:00,80.4,74.0,29.96,SSE,151,3.0,11.0,81,0.00,,FEW,0.08,0.00,VWS V14.01,2013-04-19 00:24:00,
2013-04-18 20:27:00,80.3,73.9,29.96,SSE,148,9.0,14.0,81,0.00,,FEW,0.08,0.00,VWS V14.01,2013-04-19 00:27:00,
2013-04-18 20:28:00,80.3,73.9,29.96,ESE,113,5.0,14.0,81,0.00,,FEW,0.08,0.00,VWS V14.01,2013-04-19 00:28:00,
2013-04-18 20:29:00,80.3,73.9,29.96,ESE,116,3.0,14.0,81,0.00,,FEW,0.08,0.00,VWS V14.01,2013-04-19 00:29:00,
2013-04-18 20:33:00,80.3,73.9,29.96,East,101,7.0,7.0,81,0.00,,FEW,0.08,0.00,VWS V14.01,2013-04-19 00:33:00,
2013-04-18 20:34:00,80.3,73.9,29.96,SE,140,7.0,7.0,81,0.00,,FEW,0.08,0.00,VWS V14.01,2013-04-19 00:34:00,
2013-04-18 20:38:00,80.3,73.9,29.96,ESE,116,9.0,13.0,81,0.00,,FEW,0.08,0.00,VWS V14.01,2013-04-19 00:38:00,
2013-04-18 20:39:00,80.3,73.9,29.96,East,89,7.0,13.0,81,0.00,,FEW,0.08,0.00,VWS V14.01,2013-04-19 00:39:00,
2013-04-18 20:43:00,80.3,74.3,29.96,SE,133,6.0,6.0,82,0.00,,FEW,0.08,0.00,VWS V14.01,2013-04-19 00:43:00,
2013-04-18 20:44:00,80.3,73.9,29.96,ESE,110,9.0,9.0,81,0.00,,FEW,0.08,0.00,VWS V14.01,2013-04-19 00:44:00,
2013-04-18 20:48:00,80.2,73.8,29.96,SSE,148,6.0,9.0,81,0.00,,FEW,0.08,0.00,VWS V14.01,2013-04-19 00:48:00,
2013-04-18 20:49:00,80.2,73.8,29.96,SE,127,10.0,11.0,81,0.00,,FEW,0.08,0.00,VWS V14.01,2013-04-19 00:49:00,
2013-04-18 20:53:00,80.2,73.8,29.96,SSE,151,5.0,6.0,81,0.00,,FEW,0.08,0.00,VWS V14.01,2013-04-19 00:53:00,
2013-04-18 20:54:00,80.2,73.8,29.96,ESE,121,7.0,7.0,81,0.00,,FEW,0.08,0.00,VWS V14.01,2013-04-19 00:54:00,
2013-04-18 20:58:00,80.2,73.8,29.96,ESE,121,5.0,7.0,81,0.00,,FEW,0.08,0.00,VWS V14.01,2013-04-19 00:58:00,
2013-04-18 20:59:00,80.1,73.8,29.96,NNE,30,3.0,8.0,81,0.00,,FEW,0.08,0.00,VWS V14.01,2013-04-19 00:59:00,
2013-04-18 21:03:00,80.1,73.8,29.97,SE,129,3.0,5.0,81,0.00,,FEW,0.08,0.00,VWS V14.01,2013-04-19 01:03:00,
2013-04-18 21:04:00,80.1,73.8,29.97,SE,136,2.0,7.0,81,0.00,,FEW,0.08,0.00,VWS V14.01,2013-04-19 01:04:00,
2013-04-18 21:05:00,80.2,73.8,29.97,ENE,59,2.0,7.0,81,0.00,,FEW,0.08,0.00,VWS V14.01,2013-04-19 01:05:00,
2013-04-18 21:08:00,80.2,73.5,29.97,ESE,123,4.0,10.0,80,0.00,,FEW,0.08,0.00,VWS V14.01,2013-04-19 01:08:00,
2013-04-18 21:09:00,80.1,73.4,29.97,ENE,67,4.0,10.0,80,0.00,,FEW,0.08,0.00,VWS V14.01,2013-04-19 01:09:00,
2013-04-18 21:10:00,80.2,73.5,29.97,ENE,78,3.0,10.0,80,0.00,,FEW,0.08,0.00,VWS V14.01,2013-04-19 01:10:00,
2013-04-18 21:13:00,80.2,73.8,29.97,East,100,1.0,5.0,81,0.00,,FEW,0.08,0.00,VWS V14.01,2013-04-19 01:13:00,
2013-04-18 21:14:00,80.2,73.8,29.97,SE,126,6.0,13.0,81,0.00,,FEW,0.08,0.00,VWS V14.01,2013-04-19 01:14:00,
2013-04-18 21:15:00,80.2,73.5,29.97,SE,127,6.0,13.0,80,0.00,,FEW,0.08,0.00,VWS V14.01,2013-04-19 01:15:00,
2013-04-18 21:18:00,80.1,73.4,29.97,SE,146,3.0,13.0,80,0.00,,FEW,0.08,0.00,VWS V14.01,2013-04-19 01:18:00,
2013-04-18 21:20:00,80.1,73.4,29.97,East,96,6.0,13.0,80,0.00,,FEW,0.08,0.00,VWS V14.01,2013-04-19 01:20:00,
2013-04-18 21:23:00,80.1,73.4,29.97,SE,134,14.0,14.0,80,0.00,,FEW,0.08,0.00,VWS V14.01,2013-04-19 01:23:00,
2013-04-18 21:25:00,80.1,73.4,29.97,SE,143,4.0,14.0,80,0.00,,FEW,0.08,0.00,VWS V14.01,2013-04-19 01:25:00,
2013-04-18 21:29:00,80.2,73.8,29.97,SE,135,4.0,14.0,81,0.00,,FEW,0.08,0.00,VWS V14.01,2013-04-19 01:29:00,
2013-04-18 21:30:00,80.2,73.8,29.97,ESE,123,5.0,14.0,81,0.00,,FEW,0.08,0.00,VWS V14.01,2013-04-19 01:30:00,
2013-04-18 21:34:00,80.2,74.2,29.97,ESE,115,4.0,5.0,82,0.00,,FEW,0.08,0.00,VWS V14.01,2013-04-19 01:34:00,
2013-04-18 21:35:00,80.2,73.8,29.97,ENE,76,2.0,8.0,81,0.00,,FEW,0.08,0.00,VWS V14.01,2013-04-19 01:35:00,
2013-04-18 21:39:00,80.2,74.2,29.97,East,84,6.0,15.0,82,0.00,,FEW,0.08,0.00,VWS V14.01,2013-04-19 01:39:00,
2013-04-18 21:40:00,80.2,74.2,29.97,SSE,157,3.0,15.0,82,0.00,,FEW,0.08,0.00,VWS V14.01,2013-04-19 01:40:00,
2013-04-18 21:41:00,80.1,74.1,29.97,SE,142,7.0,15.0,82,0.00,,FEW,0.08,0.00,VWS V14.01,2013-04-19 01:41:00,
2013-04-18 21:45:00,80.0,74.0,29.97,SE,132,5.0,9.0,82,0.00,,FEW,0.08,0.00,VWS V14.01,2013-04-19 01:45:00,
2013-04-18 21:46:00,80.0,74.0,29.97,East,90,5.0,10.0,82,0.00,,FEW,0.08,0.00,VWS V14.01,2013-04-19 01:46:00,
2013-04-18 21:50:00,80.0,74.0,29.97,East,91,3.0,13.0,82,0.00,,FEW,0.08,0.00,VWS V14.01,2013-04-19 01:50:00,
2013-04-18 21:51:00,80.0,73.7,29.97,ESE,107,5.0,13.0,81,0.00,,FEW,0.08,0.00,VWS V14.01,2013-04-19 01:51:00,
2013-04-18 21:55:00,80.0,74.0,29.97,ESE,113,1.0,7.0,82,0.00,,FEW,0.08,0.00,VWS V14.01,2013-04-19 01:55:00,
2013-04-18 21:56:00,80.0,74.0,29.97,East,98,3.0,7.0,82,0.00,,FEW,0.08,0.00,VWS V14.01,2013-04-19 01:56:00,
2013-04-18 22:00:00,80.0,73.7,29.97,ESE,119,3.0,13.0,81,0.00,,FEW,0.08,0.00,VWS V14.01,2013-04-19 02:00:00,
2013-04-18 22:01:00,80.0,74.0,29.97,East,91,1.0,13.0,82,0.00,,FEW,0.08,0.00,VWS V14.01,2013-04-19 02:01:00,
2013-04-18 22:02:00,80.0,74.0,29.97,East,82,1.0,13.0,82,0.00,,FEW,0.08,0.00,VWS V14.01,2013-04-19 02:02:00,
2013-04-18 22:05:00,80.0,74.0,29.97,SE,126,3.0,13.0,82,0.00,,FEW,0.08,0.00,VWS V14.01,2013-04-19 02:05:00,
2013-04-18 22:06:00,80.0,74.0,29.97,ESE,111,1.0,13.0,82,0.00,,FEW,0.08,0.00,VWS V14.01,2013-04-19 02:06:00,
2013-04-18 22:07:00,80.0,74.0,29.97,East,84,1.0,13.0,82,0.00,,FEW,0.08,0.00,VWS V14.01,2013-04-19 02:07:00,
2013-04-18 22:10:00,80.1,74.1,29.97,ENE,74,3.0,13.0,82,0.00,,FEW,0.08,0.00,VWS V14.01,2013-04-19 02:10:00,
2013-04-18 22:11:00,80.1,74.1,29.97,East,85,6.0,13.0,82,0.00,,FEW,0.08,0.00,VWS V14.01,2013-04-19 02:11:00,
2013-04-18 22:12:00,80.1,74.1,29.97,SE,130,2.0,13.0,82,0.00,,FEW,0.08,0.00,VWS V14.01,2013-04-19 02:12:00,
2013-04-18 22:15:00,80.0,74.0,29.97,SE,137,4.0,7.0,82,0.00,,FEW,0.08,0.00,VWS V14.01,2013-04-19 02:15:00,
2013-04-18 22:16:00,80.1,74.1,29.97,SSE,148,9.0,9.0,82,0.00,,FEW,0.08,0.00,VWS V14.01,2013-04-19 02:16:00,
2013-04-18 22:17:00,80.1,74.1,29.98,ESE,110,7.0,9.0,82,0.00,,FEW,0.08,0.00,VWS V14.01,2013-04-19 02:17:00,
2013-04-18 22:20:00,80.1,74.5,29.98,ENE,66,4.0,9.0,83,0.00,,FEW,0.08,0.00,VWS V14.01,2013-04-19 02:20:00,
2013-04-18 22:22:00,80.1,74.5,29.98,SSE,161,3.0,9.0,83,0.00,,FEW,0.08,0.00,VWS V14.01,2013-04-19 02:22:00,
2013-04-18 22:25:00,80.1,74.5,29.98,ENE,67,4.0,11.0,83,0.00,,FEW,0.08,0.00,VWS V14.01,2013-04-19 02:25:00,
2013-04-18 22:27:00,80.1,74.5,29.98,East,92,7.0,11.0,83,0.00,,FEW,0.08,0.00,VWS V14.01,2013-04-19 02:27:00,
2013-04-18 22:30:00,80.1,74.5,29.98,SE,130,14.0,14.0,83,0.00,,FEW,0.08,0.00,VWS V14.01,2013-04-19 02:30:00,
2013-04-18 22:32:00,80.0,74.4,29.98,SE,145,6.0,14.0,83,0.00,,FEW,0.08,0.00,VWS V14.01,2013-04-19 02:32:00,
2013-04-18 22:33:00,80.0,74.0,29.98,East,101,2.0,3.0,82,0.00,,FEW,0.08,0.00,VWS V14.01,2013-04-19 02:33:00,
2013-04-18 22:35:00,79.9,74.3,29.98,ESE,116,4.0,11.0,83,0.00,,FEW,0.08,0.00,VWS V14.01,2013-04-19 02:35:00,
2013-04-18 22:37:00,79.9,74.3,29.98,East,87,7.0,11.0,83,0.00,,FEW,0.08,0.00,VWS V14.01,2013-04-19 02:37:00,
2013-04-18 22:38:00,79.9,74.3,29.98,SE,130,9.0,11.0,83,0.00,,FEW,0.08,0.00,VWS V14.01,2013-04-19 02:38:00,
2013-04-18 22:40:00,79.9,73.9,29.98,ESE,106,7.0,11.0,82,0.00,,FEW,0.08,0.00,VWS V14.01,2013-04-19 02:40:00,
2013-04-18 22:42:00,79.9,74.3,29.98,SE,131,6.0,11.0,83,0.00,,FEW,0.08,0.00,VWS V14.01,2013-04-19 02:42:00,
2013-04-18 22:43:00,80.0,74.4,29.98,ENE,63,3.0,8.0,83,0.00,,FEW,0.08,0.00,VWS V14.01,2013-04-19 02:43:00,
2013-04-18 22:46:00,79.9,74.3,29.98,ESE,106,2.0,9.0,83,0.00,,FEW,0.08,0.00,VWS V14.01,2013-04-19 02:46:00,
2013-04-18 22:47:00,80.0,74.4,29.99,ESE,115,1.0,9.0,83,0.00,,FEW,0.08,0.00,VWS V14.01,2013-04-19 02:47:00,
2013-04-18 22:48:00,80.0,74.4,29.99,SE,140,4.0,9.0,83,0.00,,FEW,0.08,0.00,VWS V14.01,2013-04-19 02:48:00,
2013-04-18 22:49:00,80.0,74.4,29.99,East,85,5.0,11.0,83,0.00,,FEW,0.08,0.00,VWS V14.01,2013-04-19 02:49:00,
2013-04-18 22:51:00,79.9,73.9,29.99,ESE,120,12.0,16.0,82,0.00,,FEW,0.08,0.00,VWS V14.01,2013-04-19 02:51:00,
2013-04-18 22:52:00,79.9,73.9,29.99,ESE,123,4.0,16.0,82,0.00,,FEW,0.08,0.00,VWS V14.01,2013-04-19 02:52:00,
2013-04-18 22:53:00,79.9,73.9,29.99,SE,146,4.0,8.0,82,0.00,,FEW,0.08,0.00,VWS V14.01,2013-04-19 02:53:00,
2013-04-18 22:54:00,79.9,73.9,29.99,SE,133,5.0,11.0,82,0.00,,FEW,0.08,0.00,VWS V14.01,2013-04-19 02:54:00,
2013-04-18 22:56:00,79.9,73.9,29.99,ESE,119,4.0,11.0,82,0.00,,FEW,0.08,0.00,VWS V14.01,2013-04-19 02:56:00,
2013-04-18 22:57:00,80.0,74.0,29.99,ENE,76,10.0,11.0,82,0.00,,FEW,0.08,0.00,VWS V14.01,2013-04-19 02:57:00,
2013-04-18 22:58:00,80.0,74.0,29.99,East,94,2.0,11.0,82,0.00,,FEW,0.08,0.00,VWS V14.01,2013-04-19 02:58:00,
2013-04-18 22:59:00,80.0,74.0,29.99,SSE,151,4.0,11.0,82,0.00,,FEW,0.08,0.00,VWS V14.01,2013-04-19 02:59:00,
2013-04-18 23:01:00,80.0,74.0,29.99,East,82,6.0,12.0,82,0.00,,FEW,0.08,0.00,VWS V14.01,2013-04-19 03:01:00,
2013-04-18 23:02:00,80.0,74.0,29.99,East,94,8.0,14.0,82,0.00,,FEW,0.08,0.00,VWS V14.01,2013-04-19 03:02:00,
2013-04-18 23:03:00,80.0,74.0,29.99,East,101,3.0,9.0,82,0.00,,FEW,0.08,0.00,VWS V14.01,2013-04-19 03:03:00,
2013-04-18 23:04:00,80.0,74.0,29.99,SE,128,8.0,9.0,82,0.00,,FEW,0.08,0.00,VWS V14.01,2013-04-19 03:04:00,
2013-04-18 23:06:00,79.9,73.9,29.99,SE,130,2.0,9.0,82,0.00,,FEW,0.08,0.00,VWS V14.01,2013-04-19 03:06:00,
2013-04-18 23:08:00,80.0,74.0,29.99,East,94,3.0,12.0,82,0.00,,FEW,0.08,0.00,VWS V14.01,2013-04-19 03:08:00,
2013-04-18 23:09:00,80.0,74.0,29.99,ESE,108,3.0,12.0,82,0.00,,FEW,0.08,0.00,VWS V14.01,2013-04-19 03:09:00,
2013-04-18 23:11:00,80.0,74.4,29.99,ESE,123,1.0,12.0,83,0.00,,FEW,0.08,0.00,VWS V14.01,2013-04-19 03:11:00,
2013-04-18 23:13:00,80.0,74.4,29.99,SSE,153,6.0,7.0,83,0.00,,FEW,0.08,0.00,VWS V14.01,2013-04-19 03:13:00,
2013-04-18 23:14:00,80.1,74.5,29.99,SE,145,3.0,7.0,83,0.00,,FEW,0.08,0.00,VWS V14.01,2013-04-19 03:14:00,
2013-04-18 23:16:00,80.1,74.5,29.99,SE,146,8.0,11.0,83,0.00,,FEW,0.08,0.00,VWS V14.01,2013-04-19 03:16:00,
2013-04-18 23:18:00,80.0,74.4,29.99,SE,129,3.0,14.0,83,0.00,,FEW,0.08,0.00,VWS V14.01,2013-04-19 03:18:00,
2013-04-18 23:19:00,80.1,74.5,29.99,ESE,109,5.0,14.0,83,0.00,,FEW,0.08,0.00,VWS V14.01,2013-04-19 03:19:00,
2013-04-18 23:22:00,80.0,74.4,29.99,East,92,9.0,14.0,83,0.00,,FEW,0.08,0.00,VWS V14.01,2013-04-19 03:22:00,
2013-04-18 23:23:00,80.0,74.4,29.99,SE,144,10.0,13.0,83,0.00,,FEW,0.08,0.00,VWS V14.01,2013-04-19 03:23:00,
2013-04-18 23:24:00,80.0,74.4,29.99,SSE,149,6.0,13.0,83,0.00,,FEW,0.08,0.00,VWS V14.01,2013-04-19 03:24:00,
2013-04-18 23:27:00,80.1,74.5,29.99,ESE,115,3.0,13.0,83,0.00,,FEW,0.08,0.00,VWS V14.01,2013-04-19 03:27:00,
2013-04-18 23:28:00,80.0,74.4,29.99,East,90,7.0,13.0,83,0.00,,FEW,0.08,0.00,VWS V14.01,2013-04-19 03:28:00,
2013-04-18 23:29:00,80.0,74.4,29.99,East,83,3.0,13.0,83,0.00,,FEW,0.08,0.00,VWS V14.01,2013-04-19 03:29:00,
2013-04-18 23:32:00,80.0,74.4,29.99,SSE,150,8.0,13.0,83,0.00,,FEW,0.08,0.00,VWS V14.01,2013-04-19 03:32:00,
2013-04-18 23:33:00,80.0,74.4,29.99,ESE,122,7.0,12.0,83,0.00,,FEW,0.08,0.00,VWS V14.01,2013-04-19 03:33:00,
2013-04-18 23:34:00,80.0,74.4,29.99,SE,141,5.0,12.0,83,0.00,,FEW,0.08,0.00,VWS V14.01,2013-04-19 03:34:00,
2013-04-18 23:35:00,80.0,74.4,29.99,SE,128,4.0,12.0,83,0.00,,FEW,0.08,0.00,VWS V14.01,2013-04-19 03:35:00,
2013-04-18 23:37:00,80.0,74.4,29.99,SSE,154,2.0,12.0,83,0.00,,FEW,0.08,0.00,VWS V14.01,2013-04-19 03:37:00,
2013-04-18 23:39:00,79.9,74.3,29.99,NE,43,5.0,12.0,83,0.00,,FEW,0.08,0.00,VWS V14.01,2013-04-19 03:39:00,
2013-04-18 23:40:00,79.9,74.3,29.99,SE,128,3.0,12.0,83,0.00,,FEW,0.08,0.00,VWS V14.01,2013-04-19 03:40:00,
2013-04-18 23:42:00,79.9,74.3,29.99,SE,144,11.0,12.0,83,0.00,,FEW,0.08,0.00,VWS V14.01,2013-04-19 03:42:00,
2013-04-18 23:44:00,80.0,74.4,29.99,ESE,123,10.0,10.0,83,0.00,,FEW,0.08,0.00,VWS V14.01,2013-04-19 03:44:00,
2013-04-18 23:45:00,80.0,74.4,29.99,SE,138,12.0,12.0,83,0.00,,FEW,0.08,0.00,VWS V14.01,2013-04-19 03:45:00,
2013-04-18 23:47:00,79.9,74.3,29.99,SSE,154,6.0,12.0,83,0.00,,FEW,0.08,0.00,VWS V14.01,2013-04-19 03:47:00,
2013-04-18 23:49:00,80.0,74.4,29.99,ENE,69,3.0,12.0,83,0.00,,FEW,0.08,0.00,VWS V14.01,2013-04-19 03:49:00,
2013-04-18 23:50:00,80.0,74.4,29.99,ESE,105,7.0,12.0,83,0.00,,FEW,0.08,0.00,VWS V14.01,2013-04-19 03:50:00,
2013-04-18 23:53:00,80.0,74.0,29.99,ESE,102,7.0,11.0,82,0.00,,FEW,0.08,0.00,VWS V14.01,2013-04-19 03:53:00,
2013-04-18 23:54:00,80.0,74.0,29.99,ESE,114,8.0,13.0,82,0.00,,FEW,0.08,0.00,VWS V14.01,2013-04-19 03:54:00,
2013-04-18 23:55:00,80.0,74.0,29.99,ESE,104,10.0,13.0,82,0.00,,FEW,0.08,0.00,VWS V14.01,2013-04-19 03:55:00,
2013-04-18 23:58:00,80.0,74.0,29.99,ESE,116,10.0,13.0,82,0.00,,FEW,0.08,0.00,VWS V14.01,2013-04-19 03:58:00,
2013-04-18 23:59:00,80.0,74.0,29.99,ESE,105,11.0,13.0,82,0.00,,FEW,0.08,0.00,VWS V14.01,2013-04-19 03:59:00,